FW1385 Weather Reports


Display with metric or nautical units.
time (UTC)temp
F
wind
direction
speed
MPH
gust
MPH
rain 1hr
in
rain 24hr
in
rain mn
in
humidity
%
barometer
mb
20260510224603 79 258 1.0 3.0 0.00 0.00 0.00 56 1013.2
20260510224504 79 253 1.0 3.0 0.00 0.00 0.00 56 1013.2
20260510224404 78 265 1.0 3.0 0.00 0.00 0.00 58 1013.2
20260510224304 78 272 1.0 3.0 0.00 0.00 0.00 57 1013.2
20260510224203 78 280 1.0 3.0 0.00 0.00 0.00 59 1013.2
20260510224103 78 284 1.0 3.0 0.00 0.00 0.00 58 1013.2
20260510224018 78 282 1.0 3.0 0.00 0.00 0.00 58 1013.2
20260510224004 78 281 1.0 3.0 0.00 0.00 0.00 58 1013.2
20260510223904 78 274 1.0 2.0 0.00 0.00 0.00 63 1013.2
20260510223704 78 260 0.0 2.0 0.00 0.00 0.00 58 1013.1
20260510223603 77 252 0.0 2.0 0.00 0.00 0.00 58 1013.1
20260510223504 77 306 0.0 1.0 0.00 0.00 0.00 61 1013.1
20260510223403 77 306 0.0 1.0 0.00 0.00 0.00 60 1013.1
20260510223304 77 306 0.0 1.0 0.00 0.00 0.00 65 1013.1
20260510223119 77 306 0.0 1.0 0.00 0.00 0.00 63 1013.1
20260510223003 77 306 0.0 1.0 0.00 0.00 0.00 62 1013.1
20260510222918 77 306 0.0 1.0 0.00 0.00 0.00 61 1013.2
20260510222803 77 0 0.0 0.0 0.00 0.00 0.00 60 1013.2
20260510222603 77 0 0.0 0.0 0.00 0.00 0.00 60 1013.1
20260510222503 77 0 0.0 0.0 0.00 0.00 0.00 60 1013.1
20260510222403 77 0 0.0 0.0 0.00 0.00 0.00 60 1013.1
20260510222306 78 306 0.0 1.0 0.00 0.00 0.00 59 1013.1
20260510222204 78 306 0.0 1.0 0.00 0.00 0.00 59 1013.1
20260510222103 78 306 0.0 1.0 0.00 0.00 0.00 60 1013.1
20260510222004 78 306 0.0 1.0 0.00 0.00 0.00 58 1013.1
20260510221903 78 306 0.0 1.0 0.00 0.00 0.00 57 1013.2
20260510221703 78 306 0.0 1.0 0.00 0.00 0.00 58 1013.2
20260510221603 78 306 0.0 1.0 0.00 0.00 0.00 56 1013.2
20260510221503 79 306 0.0 1.0 0.00 0.00 0.00 57 1013.2
20260510221403 79 306 0.0 1.0 0.00 0.00 0.00 55 1013.2
20260510221318 79 306 0.0 1.0 0.00 0.00 0.00 55 1013.2
20260510221303 79 306 0.0 1.0 0.00 0.00 0.00 58 1013.2
20260510221203 79 306 0.0 1.0 0.00 0.00 0.00 57 1013.2
20260510221003 79 0 0.0 0.0 0.00 0.00 0.00 56 1013.2
20260510220903 79 0 0.0 0.0 0.00 0.00 0.00 55 1013.2
20260510220819 79 0 0.0 0.0 0.00 0.00 0.00 59 1013.2
20260510220803 79 0 0.0 0.0 0.00 0.00 0.00 57 1013.2
20260510220703 79 0 0.0 0.0 0.00 0.00 0.00 58 1013.2
20260510220504 79 0 0.0 0.0 0.00 0.00 0.00 58 1013.2
20260510220417 79 0 0.0 0.0 0.00 0.00 0.00 55 1013.2
20260510220403 79 0 0.0 0.0 0.00 0.00 0.00 60 1013.2
20260510220303 79 0 0.0 0.0 0.00 0.00 0.00 60 1013.2
20260510220104 79 0 0.0 0.0 0.00 0.00 0.00 57 1013.2
20260510220005 79 0 0.0 0.0 0.00 0.00 0.00 54 1013.2
20260510215904 79 0 0.0 0.0 0.00 0.00 0.00 53 1013.2
20260510215803 79 0 0.0 0.0 0.00 0.00 0.00 54 1013.2
20260510215704 79 0 0.0 0.0 0.00 0.00 0.00 55 1013.2
20260510215603 79 0 0.0 0.0 0.00 0.00 0.00 53 1013.3
20260510215503 79 0 0.0 0.0 0.00 0.00 0.00 51 1013.2
20260510215403 79 0 0.0 0.0 0.00 0.00 0.00 55 1013.2
20260510215306 79 0 0.0 0.0 0.00 0.00 0.00 53 1013.2
20260510215203 79 307 0.0 1.0 0.00 0.00 0.00 55 1013.2
20260510215117 79 306 0.0 1.0 0.00 0.00 0.00 57 1013.3
20260510215104 79 306 0.0 2.0 0.00 0.00 0.00 57 1013.3
20260510215003 79 307 0.0 2.0 0.00 0.00 0.00 52 1013.3
20260510214803 80 307 0.0 2.0 0.00 0.00 0.00 52 1013.3
20260510214703 80 307 0.0 2.0 0.00 0.00 0.00 51 1013.3
20260510214603 80 307 0.0 2.0 0.00 0.00 0.00 48 1013.3
20260510214503 80 307 0.0 2.0 0.00 0.00 0.00 51 1013.3
20260510214404 80 307 0.0 2.0 0.00 0.00 0.00 50 1013.3
20260510214303 80 307 0.0 2.0 0.00 0.00 0.00 52 1013.3
20260510214204 80 307 0.0 2.0 0.00 0.00 0.00 53 1013.3
20260510214117 80 307 0.0 2.0 0.00 0.00 0.00 50 1013.3
20260510214103 80 307 0.0 1.0 0.00 0.00 0.00 50 1013.3
20260510214003 79 307 0.0 1.0 0.00 0.00 0.00 55 1013.3
20260510213804 80 0 0.0 0.0 0.00 0.00 0.00 52 1013.3
20260510213704 80 328 0.0 1.0 0.00 0.00 0.00 50 1013.3
20260510213603 80 328 0.0 1.0 0.00 0.00 0.00 51 1013.3
20260510213504 80 328 0.0 2.0 0.00 0.00 0.00 50 1013.4
20260510213404 80 328 0.0 2.0 0.00 0.00 0.00 51 1013.4
20260510213318 80 328 0.0 2.0 0.00 0.00 0.00 49 1013.3
20260510213304 80 328 0.0 2.0 0.00 0.00 0.00 51 1013.3
20260510213203 80 328 0.0 2.0 0.00 0.00 0.00 49 1013.3
20260510213004 80 329 0.0 2.0 0.00 0.00 0.00 49 1013.3
20260510212903 80 329 0.0 2.0 0.00 0.00 0.00 49 1013.3
20260510212803 80 329 0.0 2.0 0.00 0.00 0.00 51 1013.3
20260510212604 81 332 1.0 3.0 0.00 0.00 0.00 46 1013.3
20260510212504 81 340 1.0 3.0 0.00 0.00 0.00 47 1013.3
20260510212403 81 338 1.0 3.0 0.00 0.00 0.00 47 1013.3
20260510212306 81 334 1.0 3.0 0.00 0.00 0.00 46 1013.3
20260510212204 81 331 1.0 3.0 0.00 0.00 0.00 48 1013.4
20260510212117 81 318 1.0 6.0 0.00 0.00 0.00 47 1013.4
20260510212103 81 313 1.0 6.0 0.00 0.00 0.00 45 1013.4
20260510212003 81 311 1.0 6.0 0.00 0.00 0.00 47 1013.3
20260510211803 82 312 1.0 6.0 0.00 0.00 0.00 43 1013.3
20260510211703 82 312 1.0 6.0 0.00 0.00 0.00 44 1013.3
20260510211603 82 300 1.0 6.0 0.00 0.00 0.00 45 1013.3
20260510211503 82 278 1.0 6.0 0.00 0.00 0.00 45 1013.4
20260510211403 82 276 1.0 6.0 0.00 0.00 0.00 46 1013.3
20260510211303 82 257 1.0 6.0 0.00 0.00 0.00 44 1013.3
20260510211218 82 260 0.0 6.0 0.00 0.00 0.00 43 1013.4
20260510211204 82 264 0.0 6.0 0.00 0.00 0.00 43 1013.4
20260510211104 82 322 0.0 3.0 0.00 0.00 0.00 44 1013.4
20260510211017 82 323 0.0 3.0 0.00 0.00 0.00 44 1013.4
20260510210904 82 326 0.0 3.0 0.00 0.00 0.00 46 1013.4
20260510210703 81 136 0.0 1.0 0.00 0.00 0.00 47 1013.3
20260510210603 81 136 0.0 1.0 0.00 0.00 0.00 44 1013.3
20260510210504 81 136 0.0 1.0 0.00 0.00 0.00 49 1013.3
20260510210404 80 136 0.0 1.0 0.00 0.00 0.00 49 1013.3
20260510210317 80 136 0.0 1.0 0.00 0.00 0.00 49 1013.3
20260510210303 80 136 0.0 1.0 0.00 0.00 0.00 48 1013.3
20260510210203 80 136 0.0 1.0 0.00 0.00 0.00 51 1013.3
20260510210004 80 136 0.0 1.0 0.00 0.00 0.00 49 1013.2
20260510205904 81 136 0.0 2.0 0.00 0.00 0.00 48 1013.2
20260510205803 81 136 0.0 2.0 0.00 0.00 0.00 47 1013.2
20260510205704 81 136 0.0 2.0 0.00 0.00 0.00 48 1013.2
20260510205603 81 136 0.0 2.0 0.00 0.00 0.00 47 1013.2
20260510205504 81 136 0.0 2.0 0.00 0.00 0.00 49 1013.2
20260510205203 82 136 1.0 2.0 0.00 0.00 0.00 45 1013.2
20260510205116 82 136 1.0 2.0 0.00 0.00 0.00 48 1013.2
20260510205103 82 137 1.0 2.0 0.00 0.00 0.00 48 1013.2
20260510205003 83 137 0.0 2.0 0.00 0.00 0.00 47 1013.2
20260510204803 83 137 0.0 2.0 0.00 0.00 0.00 48 1013.3
20260510204703 83 137 0.0 2.0 0.00 0.00 0.00 44 1013.3
20260510204617 83 137 0.0 2.0 0.00 0.00 0.00 42 1013.2
20260510204603 83 137 0.0 2.0 0.00 0.00 0.00 41 1013.2
20260510204503 83 139 0.0 2.0 0.00 0.00 0.00 44 1013.2
20260510204303 82 173 0.0 2.0 0.00 0.00 0.00 42 1013.3
20260510204203 82 194 0.0 2.0 0.00 0.00 0.00 41 1013.3
20260510204118 82 207 0.0 2.0 0.00 0.00 0.00 42 1013.3
20260510204103 82 207 0.0 2.0 0.00 0.00 0.00 49 1013.3
20260510204003 82 210 1.0 3.0 0.00 0.00 0.00 47 1013.3
20260510203818 83 234 1.0 3.0 0.00 0.00 0.00 46 1013.3
20260510203803 83 230 1.0 3.0 0.00 0.00 0.00 46 1013.3
20260510203704 82 226 1.0 3.0 0.00 0.00 0.00 45 1013.3
20260510203518 82 219 1.0 3.0 0.00 0.00 0.00 50 1013.3
20260510203503 82 217 1.0 3.0 0.00 0.00 0.00 46 1013.3
20260510203404 82 211 1.0 3.0 0.00 0.00 0.00 48 1013.3
20260510203203 83 201 1.0 3.0 0.00 0.00 0.00 42 1013.3
20260510203103 83 195 1.0 3.0 0.00 0.00 0.00 44 1013.3
20260510203003 84 200 1.0 2.0 0.00 0.00 0.00 44 1013.3
20260510202904 84 192 1.0 2.0 0.00 0.00 0.00 44 1013.3
20260510202803 84 190 1.0 2.0 0.00 0.00 0.00 44 1013.3
20260510202703 84 190 1.0 2.0 0.00 0.00 0.00 42 1013.3
20260510202604 84 190 0.0 2.0 0.00 0.00 0.00 42 1013.3
20260510202403 84 190 0.0 2.0 0.00 0.00 0.00 44 1013.3
20260510202317 84 190 0.0 2.0 0.00 0.00 0.00 46 1013.3
20260510202306 84 190 0.0 2.0 0.00 0.00 0.00 49 1013.3
20260510202204 84 237 0.0 2.0 0.00 0.00 0.00 44 1013.3
20260510202118 84 284 0.0 2.0 0.00 0.00 0.00 42 1013.3
20260510202004 83 283 0.0 2.0 0.00 0.00 0.00 44 1013.3
20260510201804 83 283 0.0 2.0 0.00 0.00 0.00 43 1013.3
20260510201703 82 283 0.0 2.0 0.00 0.00 0.00 47 1013.3
20260510201603 82 283 0.0 2.0 0.00 0.00 0.00 45 1013.3
20260510201504 83 283 0.0 2.0 0.00 0.00 0.00 45 1013.4
20260510201404 83 283 0.0 2.0 0.00 0.00 0.00 46 1013.4
20260510201304 83 283 1.0 2.0 0.00 0.00 0.00 43 1013.4
20260510201203 83 286 1.0 2.0 0.00 0.00 0.00 44 1013.5
20260510201104 83 288 1.0 2.0 0.00 0.00 0.00 42 1013.5
20260510201003 83 292 1.0 3.0 0.00 0.00 0.00 44 1013.5
20260510200903 83 295 1.0 3.0 0.00 0.00 0.00 44 1013.5
20260510200818 84 297 1.0 3.0 0.00 0.00 0.00 42 1013.5
20260510200803 84 296 1.0 3.0 0.00 0.00 0.00 42 1013.5
20260510200703 84 293 1.0 3.0 0.00 0.00 0.00 43 1013.5
20260510200504 84 282 1.0 3.0 0.00 0.00 0.00 41 1013.5
20260510200403 84 277 1.0 3.0 0.00 0.00 0.00 40 1013.5
20260510200303 84 270 1.0 3.0 0.00 0.00 0.00 40 1013.5
20260510200203 84 258 1.0 3.0 0.00 0.00 0.00 41 1013.6
20260510200004 84 274 1.0 5.0 0.00 0.00 0.00 46 1013.5
20260510195904 84 276 1.0 5.0 0.00 0.00 0.00 44 1013.5
20260510195803 84 275 1.0 5.0 0.00 0.00 0.00 41 1013.5
20260510195718 84 275 1.0 5.0 0.00 0.00 0.00 40 1013.4
20260510195704 84 276 1.0 5.0 0.00 0.00 0.00 40 1013.4
20260510195603 84 284 1.0 5.0 0.00 0.00 0.00 40 1013.4
20260510195403 85 295 1.0 5.0 0.00 0.00 0.00 41 1013.4
20260510195306 85 300 1.0 5.0 0.00 0.00 0.00 40 1013.4
20260510195203 85 308 1.0 5.0 0.00 0.00 0.00 40 1013.5
20260510195104 85 307 0.0 5.0 0.00 0.00 0.00 41 1013.5
20260510194904 85 310 1.0 3.0 0.00 0.00 0.00 42 1013.6
20260510194808 85 312 1.0 3.0 0.00 0.00 0.00 42 1013.6
20260510194703 85 315 1.0 3.0 0.00 0.00 0.00 43 1013.7
20260510194617 84 309 1.0 3.0 0.00 0.00 0.00 44 1013.7
20260510194603 84 310 1.0 3.0 0.00 0.00 0.00 44 1013.6
20260510194504 84 312 1.0 3.0 0.00 0.00 0.00 42 1013.6
20260510194303 85 301 1.0 3.0 0.00 0.00 0.00 42 1013.6
20260510194217 85 297 1.0 3.0 0.00 0.00 0.00 43 1013.6
20260510194204 85 295 1.0 3.0 0.00 0.00 0.00 41 1013.6
20260510194103 85 284 1.0 3.0 0.00 0.00 0.00 43 1013.6
20260510194017 85 264 1.0 3.0 0.00 0.00 0.00 42 1013.6
20260510193903 85 234 1.0 3.0 0.00 0.00 0.00 44 1013.5
20260510193703 84 211 1.0 3.0 0.00 0.00 0.00 45 1013.5
20260510193603 84 214 1.0 3.0 0.00 0.00 0.00 44 1013.5
20260510193520 84 219 1.0 3.0 0.00 0.00 0.00 44 1013.5
20260510193504 84 220 1.0 3.0 0.00 0.00 0.00 43 1013.5
20260510193404 83 228 1.0 3.0 0.00 0.00 0.00 42 1013.5
20260510193217 83 236 2.0 4.0 0.00 0.00 0.00 43 1013.5
20260510193204 83 234 2.0 4.0 0.00 0.00 0.00 43 1013.5
20260510193103 83 229 2.0 4.0 0.00 0.00 0.00 43 1013.6
20260510192903 83 276 2.0 4.0 0.00 0.00 0.00 44 1013.5
20260510192803 84 302 1.0 4.0 0.00 0.00 0.00 40 1013.5
20260510192703 84 317 1.0 4.0 0.00 0.00 0.00 40 1013.5
20260510192604 84 324 1.0 4.0 0.00 0.00 0.00 39 1013.5
20260510192503 84 350 1.0 4.0 0.00 0.00 0.00 38 1013.5
20260510192403 84 58 1.0 4.0 0.00 0.00 0.00 42 1013.6
20260510192306 84 92 1.0 3.0 0.00 0.00 0.00 43 1013.5
20260510192217 84 104 1.0 3.0 0.00 0.00 0.00 43 1013.5
20260510192204 84 103 1.0 3.0 0.00 0.00 0.00 43 1013.5
20260510192103 84 93 1.0 3.0 0.00 0.00 0.00 42 1013.5
20260510191917 84 150 1.0 3.0 0.00 0.00 0.00 44 1013.5
20260510191904 84 155 1.0 3.0 0.00 0.00 0.00 44 1013.5
20260510191803 84 167 1.0 3.0 0.00 0.00 0.00 44 1013.6
20260510191605 83 175 1.0 3.0 0.00 0.00 0.00 40 1013.5
20260510191505 84 189 1.0 3.0 0.00 0.00 0.00 39 1013.5
20260510191403 84 206 1.0 4.0 0.00 0.00 0.00 38 1013.6
20260510191303 84 218 1.0 4.0 0.00 0.00 0.00 38 1013.6
20260510191204 84 236 1.0 4.0 0.00 0.00 0.00 39 1013.6
20260510191118 84 248 1.0 4.0 0.00 0.00 0.00 41 1013.6
20260510191103 84 247 1.0 4.0 0.00 0.00 0.00 41 1013.6
20260510191003 84 249 1.0 4.0 0.00 0.00 0.00 39 1013.6
20260510190818 84 273 1.0 4.0 0.00 0.00 0.00 43 1013.7
20260510190804 84 277 1.0 4.0 0.00 0.00 0.00 43 1013.7
20260510190703 84 297 1.0 4.0 0.00 0.00 0.00 41 1013.7
20260510190504 84 338 1.0 4.0 0.00 0.00 0.00 43 1013.7
20260510190404 84 5 1.0 3.0 0.00 0.00 0.00 42 1013.7
20260510190304 84 34 1.0 3.0 0.00 0.00 0.00 46 1013.7
20260510190204 83 57 1.0 3.0 0.00 0.00 0.00 47 1013.7
20260510190104 83 72 1.0 3.0 0.00 0.00 0.00 46 1013.7
20260510190003 82 89 1.0 4.0 0.00 0.00 0.00 46 1013.7
20260510185903 82 99 1.0 4.0 0.00 0.00 0.00 49 1013.7
20260510185803 82 108 1.0 4.0 0.00 0.00 0.00 47 1013.7
20260510185703 83 112 1.0 4.0 0.00 0.00 0.00 44 1013.7
20260510185603 83 119 1.0 4.0 0.00 0.00 0.00 44 1013.7
20260510185503 83 125 1.0 4.0 0.00 0.00 0.00 40 1013.8
20260510185403 83 127 1.0 4.0 0.00 0.00 0.00 39 1013.8
20260510185305 84 133 1.0 4.0 0.00 0.00 0.00 39 1013.8
20260510185204 84 146 1.0 4.0 0.00 0.00 0.00 42 1013.7
20260510185118 84 147 1.0 4.0 0.00 0.00 0.00 40 1013.7
20260510185104 84 144 1.0 4.0 0.00 0.00 0.00 40 1013.7
20260510185018 85 131 1.0 4.0 0.00 0.00 0.00 40 1013.8
20260510185003 85 128 1.0 4.0 0.00 0.00 0.00 40 1013.8
20260510184703 84 104 1.0 3.0 0.00 0.00 0.00 49 1013.8
20260510184604 84 96 1.0 3.0 0.00 0.00 0.00 45 1013.8
20260510184503 84 60 1.0 3.0 0.00 0.00 0.00 44 1013.8
20260510184418 84 16 1.0 4.0 0.00 0.00 0.00 47 1013.8
20260510184404 84 11 1.0 4.0 0.00 0.00 0.00 47 1013.8
20260510184303 84 1 1.0 4.0 0.00 0.00 0.00 45 1013.9
20260510184118 84 345 1.0 4.0 0.00 0.00 0.00 44 1013.9
20260510184103 84 341 1.0 4.0 0.00 0.00 0.00 44 1013.9
20260510184003 84 339 1.0 4.0 0.00 0.00 0.00 44 1013.9
20260510183803 84 336 1.0 4.0 0.00 0.00 0.00 44 1013.9
20260510183703 84 341 1.0 4.0 0.00 0.00 0.00 42 1014.0
20260510183603 84 342 1.0 4.0 0.00 0.00 0.00 40 1014.0
20260510183504 84 344 1.0 4.0 0.00 0.00 0.00 43 1014.1
20260510183304 84 170 1.0 4.0 0.00 0.00 0.00 43 1014.1
20260510183203 84 210 1.0 5.0 0.00 0.00 0.00 45 1014.1
20260510183104 83 214 1.0 7.0 0.00 0.00 0.00 44 1014.1
20260510183018 83 203 1.0 7.0 0.00 0.00 0.00 46 1014.1
20260510183003 83 200 1.0 7.0 0.00 0.00 0.00 46 1014.1
20260510182903 83 198 1.0 7.0 0.00 0.00 0.00 50 1014.1
20260510182817 83 181 1.0 7.0 0.00 0.00 0.00 47 1014.1
20260510182704 82 204 1.0 7.0 0.00 0.00 0.00 49 1014.1
20260510182504 83 242 1.0 7.0 0.00 0.00 0.00 46 1014.1
20260510182403 83 275 1.0 7.0 0.00 0.00 0.00 43 1014.1
20260510182306 83 283 1.0 7.0 0.00 0.00 0.00 41 1014.1
20260510182217 83 280 1.0 7.0 0.00 0.00 0.00 43 1014.1
20260510182204 83 277 1.0 7.0 0.00 0.00 0.00 43 1014.1
20260510182103 83 277 1.0 4.0 0.00 0.00 0.00 45 1014.0
20260510181919 83 299 1.0 4.0 0.00 0.00 0.00 44 1014.1
20260510181903 84 300 1.0 4.0 0.00 0.00 0.00 43 1014.1
20260510181803 84 299 1.0 4.0 0.00 0.00 0.00 44 1014.1
20260510181603 84 317 1.0 4.0 0.00 0.00 0.00 46 1014.2
20260510181503 84 327 2.0 4.0 0.00 0.00 0.00 45 1014.2
20260510181403 84 335 1.0 4.0 0.00 0.00 0.00 42 1014.2
20260510181304 84 346 2.0 4.0 0.00 0.00 0.00 43 1014.2
20260510181203 84 349 2.0 4.0 0.00 0.00 0.00 43 1014.2
20260510181103 84 360 1.0 4.0 0.00 0.00 0.00 44 1014.2
20260510181003 84 360 1.0 4.0 0.00 0.00 0.00 42 1014.2
20260510180904 84 355 1.0 4.0 0.00 0.00 0.00 43 1014.2
20260510180804 84 346 1.0 4.0 0.00 0.00 0.00 46 1014.2
20260510180703 84 338 1.0 4.0 0.00 0.00 0.00 47 1014.2
20260510180603 84 328 1.0 5.0 0.00 0.00 0.00 44 1014.2
20260510180517 84 321 1.0 5.0 0.00 0.00 0.00 44 1014.2
20260510180503 84 317 1.0 5.0 0.00 0.00 0.00 44 1014.2
20260510180403 84 314 2.0 5.0 0.00 0.00 0.00 42 1014.2
20260510180203 84 314 2.0 5.0 0.00 0.00 0.00 43 1014.3
20260510180104 84 317 2.0 5.0 0.00 0.00 0.00 44 1014.2
20260510180005 84 320 2.0 5.0 0.00 0.00 0.00 43 1014.2
20260510175903 83 321 2.0 5.0 0.00 0.00 0.00 43 1014.3
20260510175804 83 320 2.0 5.0 0.00 0.00 0.00 43 1014.2
20260510175718 83 322 1.0 5.0 0.00 0.00 0.00 42 1014.2
20260510175703 83 323 1.0 5.0 0.00 0.00 0.00 42 1014.2
20260510175604 83 329 1.0 4.0 0.00 0.00 0.00 42 1014.3
20260510175404 83 341 1.0 4.0 0.00 0.00 0.00 45 1014.3
20260510175306 83 338 1.0 4.0 0.00 0.00 0.00 42 1014.2
20260510175203 83 331 1.0 4.0 0.00 0.00 0.00 41 1014.2
20260510175103 83 328 1.0 6.0 0.00 0.00 0.00 42 1014.3
20260510175018 83 328 1.0 6.0 0.00 0.00 0.00 44 1014.3
20260510175003 83 329 1.0 6.0 0.00 0.00 0.00 45 1014.3
20260510174916 83 335 1.0 6.0 0.00 0.00 0.00 44 1014.3
20260510174903 83 336 1.0 6.0 0.00 0.00 0.00 44 1014.3
20260510174718 83 17 1.0 6.0 0.00 0.00 0.00 42 1014.3
20260510174603 83 19 1.0 6.0 0.00 0.00 0.00 45 1014.4
20260510174403 84 33 1.0 6.0 0.00 0.00 0.00 46 1014.4
20260510174304 84 49 1.0 6.0 0.00 0.00 0.00 45 1014.4
20260510174203 84 62 1.0 6.0 0.00 0.00 0.00 44 1014.4
20260510174103 83 85 1.0 3.0 0.00 0.00 0.00 49 1014.5
20260510174004 83 102 1.0 3.0 0.00 0.00 0.00 46 1014.4
20260510173903 83 102 1.0 3.0 0.00 0.00 0.00 46 1014.4
20260510173817 83 103 1.0 3.0 0.00 0.00 0.00 46 1014.5
20260510173804 83 105 1.0 3.0 0.00 0.00 0.00 49 1014.5
20260510173703 83 117 1.0 3.0 0.00 0.00 0.00 49 1014.5
20260510173503 84 121 1.0 3.0 0.00 0.00 0.00 45 1014.6
20260510173403 84 130 1.0 3.0 0.00 0.00 0.00 46 1014.6
20260510173303 85 116 1.0 3.0 0.00 0.00 0.00 44 1014.5
20260510173204 85 83 1.0 3.0 0.00 0.00 0.00 45 1014.6
20260510173103 85 74 1.0 3.0 0.00 0.00 0.00 45 1014.6
20260510173018 85 44 1.0 3.0 0.00 0.00 0.00 46 1014.5
20260510173004 85 6 1.0 3.0 0.00 0.00 0.00 46 1014.5
20260510172903 85 346 1.0 3.0 0.00 0.00 0.00 45 1014.5
20260510172704 85 341 1.0 2.0 0.00 0.00 0.00 46 1014.6
20260510172603 85 325 1.0 2.0 0.00 0.00 0.00 46 1014.6
20260510172503 85 316 1.0 2.0 0.00 0.00 0.00 44 1014.6
20260510172403 85 312 1.0 2.0 0.00 0.00 0.00 45 1014.6
20260510172306 85 313 1.0 3.0 0.00 0.00 0.00 48 1014.6
20260510172219 85 315 1.0 3.0 0.00 0.00 0.00 48 1014.7
20260510172203 85 316 1.0 3.0 0.00 0.00 0.00 48 1014.7
20260510172103 85 320 1.0 3.0 0.00 0.00 0.00 47 1014.7
20260510171904 85 313 1.0 3.0 0.00 0.00 0.00 47 1014.6
20260510171803 85 311 1.0 3.0 0.00 0.00 0.00 48 1014.6
20260510171704 85 308 1.0 4.0 0.00 0.00 0.00 45 1014.6
20260510171603 84 307 1.0 4.0 0.00 0.00 0.00 46 1014.6
20260510171504 84 305 1.0 4.0 0.00 0.00 0.00 45 1014.6
20260510171403 84 302 1.0 4.0 0.00 0.00 0.00 48 1014.6
20260510171304 84 296 1.0 4.0 0.00 0.00 0.00 46 1014.6
20260510171218 84 290 1.0 4.0 0.00 0.00 0.00 45 1014.7
20260510171203 84 288 1.0 4.0 0.00 0.00 0.00 45 1014.7
20260510171103 84 274 1.0 4.0 0.00 0.00 0.00 45 1014.7
20260510170903 84 264 1.0 4.0 0.00 0.00 0.00 45 1014.7
20260510170803 84 256 1.0 4.0 0.00 0.00 0.00 46 1014.7
20260510170703 84 243 1.0 4.0 0.00 0.00 0.00 48 1014.7
20260510170603 84 235 1.0 4.0 0.00 0.00 0.00 48 1014.7
20260510170503 84 221 1.0 4.0 0.00 0.00 0.00 49 1014.7
20260510170404 84 195 1.0 4.0 0.00 0.00 0.00 46 1014.7
20260510170304 84 177 0.0 4.0 0.00 0.00 0.00 51 1014.7
20260510170204 84 162 0.0 3.0 0.00 0.00 0.00 50 1014.7
20260510170003 84 129 0.0 3.0 0.00 0.00 0.00 49 1014.7
20260510165904 84 165 0.0 3.0 0.00 0.00 0.00 52 1014.7
20260510165804 84 190 1.0 3.0 0.00 0.00 0.00 51 1014.7
20260510165717 84 279 1.0 4.0 0.00 0.00 0.00 51 1014.6
20260510165703 84 288 1.0 4.0 0.00 0.00 0.00 50 1014.6
20260510165604 84 298 1.0 4.0 0.00 0.00 0.00 49 1014.7
20260510165403 84 308 1.0 6.0 0.00 0.00 0.00 50 1014.7
20260510165306 84 317 1.0 6.0 0.00 0.00 0.00 50 1014.7
20260510165218 83 320 2.0 6.0 0.00 0.00 0.00 50 1014.6
20260510165203 84 319 2.0 6.0 0.00 0.00 0.00 48 1014.6
20260510165117 83 314 2.0 6.0 0.00 0.00 0.00 48 1014.6
20260510165104 83 312 2.0 6.0 0.00 0.00 0.00 49 1014.7
20260510164918 83 315 1.0 6.0 0.00 0.00 0.00 51 1014.7
20260510164804 83 310 1.0 6.0 0.00 0.00 0.00 49 1014.7
20260510164618 83 306 1.0 6.0 0.00 0.00 0.00 50 1014.6
20260510164604 84 309 1.0 6.0 0.00 0.00 0.00 54 1014.6
20260510164504 84 309 1.0 3.0 0.00 0.00 0.00 53 1014.6
20260510164318 83 285 1.0 3.0 0.00 0.00 0.00 52 1014.7
20260510164304 83 278 1.0 3.0 0.00 0.00 0.00 52 1014.6
20260510164203 83 272 1.0 3.0 0.00 0.00 0.00 52 1014.6
20260510164004 83 261 1.0 3.0 0.00 0.00 0.00 50 1014.7
20260510163903 83 290 1.0 3.0 0.00 0.00 0.00 51 1014.7
20260510163817 83 332 1.0 3.0 0.00 0.00 0.00 51 1014.7
20260510163804 83 335 1.0 3.0 0.00 0.00 0.00 51 1014.7
20260510163703 83 332 1.0 5.0 0.00 0.00 0.00 54 1014.7
20260510163618 83 340 1.0 5.0 0.00 0.00 0.00 54 1014.6
20260510163504 83 334 1.0 5.0 0.00 0.00 0.00 52 1014.6
20260510163304 83 322 2.0 5.0 0.00 0.00 0.00 53 1014.7
20260510163203 83 326 2.0 5.0 0.00 0.00 0.00 55 1014.7
20260510163104 82 327 2.0 5.0 0.00 0.00 0.00 55 1014.7
20260510163004 82 327 2.0 5.0 0.00 0.00 0.00 56 1014.7
20260510162904 82 324 2.0 5.0 0.00 0.00 0.00 55 1014.7
20260510162804 82 318 2.0 5.0 0.00 0.00 0.00 53 1014.7
20260510162704 82 317 2.0 5.0 0.00 0.00 0.00 54 1014.7
20260510162604 82 312 2.0 5.0 0.00 0.00 0.00 53 1014.7
20260510162403 82 304 2.0 5.0 0.00 0.00 0.00 50 1014.7
20260510162306 82 302 1.0 4.0 0.00 0.00 0.00 49 1014.7
20260510162204 82 294 1.0 4.0 0.00 0.00 0.00 49 1014.7
20260510162104 82 281 1.0 4.0 0.00 0.00 0.00 51 1014.7
20260510162003 82 262 1.0 4.0 0.00 0.00 0.00 49 1014.7
20260510161904 82 260 1.0 6.0 0.00 0.00 0.00 51 1014.7
20260510161803 82 249 1.0 6.0 0.00 0.00 0.00 52 1014.7
20260510161717 82 241 1.0 6.0 0.00 0.00 0.00 54 1014.7
20260510161703 82 239 1.0 6.0 0.00 0.00 0.00 55 1014.7
20260510161603 82 235 1.0 6.0 0.00 0.00 0.00 56 1014.7
20260510161403 82 280 1.0 6.0 0.00 0.00 0.00 57 1014.7
20260510161304 82 286 1.0 6.0 0.00 0.00 0.00 58 1014.6
20260510161203 82 288 1.0 6.0 0.00 0.00 0.00 58 1014.6
20260510161103 82 291 1.0 6.0 0.00 0.00 0.00 56 1014.6
20260510161003 82 304 1.0 6.0 0.00 0.00 0.00 56 1014.6
20260510160903 82 306 1.0 6.0 0.00 0.00 0.00 58 1014.6
20260510160803 82 309 1.0 6.0 0.00 0.00 0.00 57 1014.6
20260510160703 81 308 1.0 6.0 0.00 0.00 0.00 57 1014.6
20260510160603 81 307 1.0 6.0 0.00 0.00 0.00 55 1014.6
20260510160403 81 308 1.0 6.0 0.00 0.00 0.00 56 1014.5
20260510160304 81 307 1.0 6.0 0.00 0.00 0.00 58 1014.6
20260510160204 81 300 1.0 6.0 0.00 0.00 0.00 57 1014.6
20260510160003 81 287 1.0 6.0 0.00 0.00 0.00 55 1014.5
20260510155904 81 246 2.0 6.0 0.00 0.00 0.00 55 1014.5
20260510155816 81 206 2.0 6.0 0.00 0.00 0.00 55 1014.5
20260510155804 81 197 2.0 6.0 0.00 0.00 0.00 55 1014.5
20260510155704 81 192 2.0 6.0 0.00 0.00 0.00 55 1014.5
20260510155503 81 167 1.0 5.0 0.00 0.00 0.00 56 1014.5
20260510155417 81 169 2.0 4.0 0.00 0.00 0.00 58 1014.5
20260510155403 81 172 2.0 4.0 0.00 0.00 0.00 58 1014.5
20260510155305 80 177 2.0 4.0 0.00 0.00 0.00 56 1014.5
20260510155104 80 196 2.0 4.0 0.00 0.00 0.00 56 1014.5
20260510155003 80 187 2.0 4.0 0.00 0.00 0.00 55 1014.5
20260510154903 80 225 2.0 4.0 0.00 0.00 0.00 57 1014.5
20260510154803 80 285 2.0 4.0 0.00 0.00 0.00 55 1014.5
20260510154703 80 314 2.0 6.0 0.00 0.00 0.00 56 1014.6
20260510154617 80 301 2.0 6.0 0.00 0.00 0.00 56 1014.6
20260510154603 80 299 2.0 6.0 0.00 0.00 0.00 56 1014.6
20260510154503 80 297 2.0 6.0 0.00 0.00 0.00 60 1014.6
20260510154303 80 316 2.0 7.0 0.00 0.00 0.00 61 1014.6
20260510154203 80 320 2.0 7.0 0.00 0.00 0.00 58 1014.6
20260510154116 80 318 2.0 7.0 0.00 0.00 0.00 58 1014.6
20260510154103 80 316 2.0 7.0 0.00 0.00 0.00 58 1014.6
20260510154004 80 308 2.0 7.0 0.00 0.00 0.00 58 1014.6
20260510153803 80 304 1.0 7.0 0.00 0.00 0.00 61 1014.6
20260510153703 80 300 1.0 7.0 0.00 0.00 0.00 61 1014.5
20260510153604 80 302 1.0 7.0 0.00 0.00 0.00 59 1014.6
20260510153503 80 307 1.0 7.0 0.00 0.00 0.00 60 1014.6
20260510153417 80 312 0.0 5.0 0.00 0.00 0.00 60 1014.6
20260510153403 80 315 0.0 3.0 0.00 0.00 0.00 60 1014.6
20260510153303 80 303 0.0 3.0 0.00 0.00 0.00 64 1014.6
20260510153103 80 284 0.0 2.0 0.00 0.00 0.00 64 1014.6
20260510153003 80 0 0.0 0.0 0.00 0.00 0.00 65 1014.6
20260510152803 80 0 0.0 0.0 0.00 0.00 0.00 65 1014.6
20260510152703 80 0 0.0 0.0 0.00 0.00 0.00 65 1014.6
20260510152603 80 0 0.0 0.0 0.00 0.00 0.00 65 1014.6
20260510152504 80 0 0.0 0.0 0.00 0.00 0.00 65 1014.6
20260510152403 80 0 0.0 0.0 0.00 0.00 0.00 65 1014.5
20260510152307 80 0 0.0 0.0 0.00 0.00 0.00 64 1014.6
20260510152203 80 0 0.0 0.0 0.00 0.00 0.00 65 1014.6
20260510152103 80 0 0.0 0.0 0.00 0.00 0.00 64 1014.6
20260510152003 80 0 0.0 0.0 0.00 0.00 0.00 65 1014.6
20260510151904 80 185 0.0 1.0 0.00 0.00 0.00 65 1014.6
20260510151803 80 185 0.0 2.0 0.00 0.00 0.00 64 1014.6
20260510151703 80 185 0.0 2.0 0.00 0.00 0.00 66 1014.6
20260510151603 80 185 0.0 2.0 0.00 0.00 0.00 67 1014.6
20260510151504 79 184 0.0 2.0 0.00 0.00 0.00 67 1014.6
20260510151404 79 184 0.0 2.0 0.00 0.00 0.00 68 1014.6
20260510151303 79 184 1.0 2.0 0.00 0.00 0.00 68 1014.6
20260510151203 79 183 1.0 2.0 0.00 0.00 0.00 68 1014.6
20260510151118 79 182 1.0 2.0 0.00 0.00 0.00 68 1014.5
20260510151103 79 181 1.0 2.0 0.00 0.00 0.00 68 1014.5
20260510151004 79 182 1.0 2.0 0.00 0.00 0.00 69 1014.5
20260510150918 79 184 1.0 2.0 0.00 0.00 0.00 68 1014.5
20260510150818 78 193 1.0 2.0 0.00 0.00 0.00 69 1014.6
20260510150803 78 194 1.0 2.0 0.00 0.00 0.00 69 1014.6
20260510150504 78 224 1.0 3.0 0.00 0.00 0.00 70 1014.6
20260510150416 78 232 1.0 3.0 0.00 0.00 0.00 70 1014.6
20260510150403 78 237 1.0 3.0 0.00 0.00 0.00 70 1014.6
20260510150304 78 261 1.0 3.0 0.00 0.00 0.00 70 1014.6
20260510150103 77 297 0.0 3.0 0.00 0.00 0.00 70 1014.5
20260510150017 77 302 0.0 3.0 0.00 0.00 0.00 70 1014.5
20260510150004 77 301 0.0 3.0 0.00 0.00 0.00 70 1014.6
20260510145904 77 306 0.0 3.0 0.00 0.00 0.00 70 1014.6
20260510145705 77 111 0.0 1.0 0.00 0.00 0.00 70 1014.6
20260510145603 77 0 0.0 0.0 0.00 0.00 0.00 70 1014.6
20260510145504 77 0 0.0 0.0 0.00 0.00 0.00 71 1014.6
20260510145404 77 0 0.0 0.0 0.00 0.00 0.00 71 1014.6
20260510145317 77 0 0.0 0.0 0.00 0.00 0.00 72 1014.6
20260510145204 77 0 0.0 0.0 0.00 0.00 0.00 74 1014.6
20260510145118 77 0 0.0 0.0 0.00 0.00 0.00 73 1014.5
20260510145017 77 56 0.0 1.0 0.00 0.00 0.00 72 1014.5
20260510145004 77 58 0.0 2.0 0.00 0.00 0.00 72 1014.5
20260510144703 76 90 0.0 2.0 0.00 0.00 0.00 74 1014.5
20260510144603 76 89 0.0 2.0 0.00 0.00 0.00 73 1014.5
20260510144504 76 89 0.0 2.0 0.00 0.00 0.00 73 1014.5
20260510144304 76 89 1.0 2.0 0.00 0.00 0.00 74 1014.6
20260510144203 76 89 1.0 2.0 0.00 0.00 0.00 74 1014.6
20260510144103 76 90 1.0 2.0 0.00 0.00 0.00 74 1014.6
20260510144004 76 92 1.0 2.0 0.00 0.00 0.00 75 1014.6
20260510143904 76 90 1.0 2.0 0.00 0.00 0.00 76 1014.6
20260510143803 76 90 1.0 2.0 0.00 0.00 0.00 76 1014.6
20260510143703 75 91 1.0 2.0 0.00 0.00 0.00 76 1014.5
20260510143603 75 91 1.0 2.0 0.00 0.00 0.00 76 1014.5
20260510143504 75 92 1.0 2.0 0.00 0.00 0.00 76 1014.7
20260510143404 75 93 1.0 2.0 0.00 0.00 0.00 77 1014.7
20260510143304 75 94 1.0 2.0 0.00 0.00 0.00 77 1014.6
20260510143203 75 94 1.0 2.0 0.00 0.00 0.00 77 1014.6
20260510143103 75 95 1.0 2.0 0.00 0.00 0.00 76 1014.6
20260510143003 75 96 1.0 2.0 0.00 0.00 0.00 76 1014.6
20260510142903 75 97 1.0 2.0 0.00 0.00 0.00 76 1014.6
20260510142803 74 97 1.0 2.0 0.00 0.00 0.00 77 1014.6
20260510142703 74 97 1.0 2.0 0.00 0.00 0.00 78 1014.6
20260510142603 74 97 1.0 2.0 0.00 0.00 0.00 78 1014.6
20260510142403 74 97 1.0 2.0 0.00 0.00 0.00 78 1014.6
20260510142306 74 97 1.0 2.0 0.00 0.00 0.00 78 1014.6
20260510142204 74 97 1.0 2.0 0.00 0.00 0.00 78 1014.6
20260510142103 74 97 1.0 2.0 0.00 0.00 0.00 79 1014.6
20260510142004 74 97 0.0 2.0 0.00 0.00 0.00 79 1014.7
20260510141903 74 97 0.0 2.0 0.00 0.00 0.00 79 1014.7
20260510141803 74 97 0.0 2.0 0.00 0.00 0.00 79 1014.7
20260510141704 74 97 0.0 2.0 0.00 0.00 0.00 79 1014.7
20260510141603 73 97 1.0 2.0 0.00 0.00 0.00 79 1014.6
20260510141504 73 97 1.0 2.0 0.00 0.00 0.00 79 1014.6
20260510141404 73 97 1.0 2.0 0.00 0.00 0.00 80 1014.6
20260510141203 73 97 1.0 2.0 0.00 0.00 0.00 80 1014.7
20260510141103 73 93 1.0 3.0 0.00 0.00 0.00 80 1014.7
20260510141003 72 96 1.0 3.0 0.00 0.00 0.00 80 1014.7
20260510140903 72 97 1.0 3.0 0.00 0.00 0.00 80 1014.7
20260510140803 72 99 1.0 3.0 0.00 0.00 0.00 81 1014.7
20260510140703 72 106 1.0 3.0 0.00 0.00 0.00 81 1014.8
20260510140603 72 108 1.0 3.0 0.00 0.00 0.00 81 1014.8
20260510140503 72 112 1.0 3.0 0.00 0.00 0.00 81 1014.8
20260510140418 72 116 1.0 3.0 0.00 0.00 0.00 81 1014.8
20260510140404 72 117 1.0 3.0 0.00 0.00 0.00 81 1014.8
20260510140304 72 126 1.0 3.0 0.00 0.00 0.00 81 1014.8
20260510140104 71 148 1.0 2.0 0.00 0.00 0.00 82 1014.8
20260510140003 71 143 1.0 2.0 0.00 0.00 0.00 82 1014.8
20260510135903 71 140 1.0 2.0 0.00 0.00 0.00 82 1014.8
20260510135818 71 139 1.0 2.0 0.00 0.00 0.00 83 1014.8
20260510135804 71 138 1.0 2.0 0.00 0.00 0.00 83 1014.8
20260510135704 71 135 1.0 2.0 0.00 0.00 0.00 83 1014.8
20260510135403 71 133 1.0 2.0 0.00 0.00 0.00 84 1014.8
20260510135306 70 103 1.0 2.0 0.00 0.00 0.00 84 1014.7
20260510135203 70 90 1.0 2.0 0.00 0.00 0.00 85 1014.7
20260510135118 70 66 1.0 2.0 0.00 0.00 0.00 85 1014.8
20260510135103 70 64 1.0 2.0 0.00 0.00 0.00 85 1014.8
20260510135003 70 58 1.0 2.0 0.00 0.00 0.00 85 1014.8
20260510134803 70 4 1.0 2.0 0.00 0.00 0.00 85 1014.8
20260510134718 70 6 1.0 2.0 0.00 0.00 0.00 86 1014.8
20260510134704 70 12 1.0 2.0 0.00 0.00 0.00 86 1014.8
20260510134604 69 26 1.0 2.0 0.00 0.00 0.00 86 1014.9
20260510134519 69 29 0.0 2.0 0.00 0.00 0.00 87 1014.9
20260510134404 69 36 0.0 2.0 0.00 0.00 0.00 87 1014.8
20260510134203 69 36 0.0 2.0 0.00 0.00 0.00 88 1014.9
20260510134103 69 36 0.0 2.0 0.00 0.00 0.00 88 1014.8
20260510134004 69 35 0.0 2.0 0.00 0.00 0.00 88 1014.7
20260510133804 68 35 0.0 2.0 0.00 0.00 0.00 88 1014.7
20260510133704 68 33 0.0 1.0 0.00 0.00 0.00 89 1014.7
20260510133603 68 0 0.0 0.0 0.00 0.00 0.00 89 1014.7
20260510133503 68 0 0.0 0.0 0.00 0.00 0.00 90 1014.7
20260510133403 68 0 0.0 0.0 0.00 0.00 0.00 90 1014.7
20260510133203 67 33 0.0 1.0 0.00 0.00 0.00 91 1014.7
20260510133103 67 33 0.0 2.0 0.00 0.00 0.00 91 1014.7
20260510133003 67 33 0.0 2.0 0.00 0.00 0.00 91 1014.7
20260510132804 67 33 0.0 2.0 0.00 0.00 0.00 91 1014.7
20260510132703 67 33 0.0 2.0 0.00 0.00 0.00 91 1014.6
20260510132603 66 31 0.0 2.0 0.00 0.00 0.00 91 1014.6
20260510132504 66 22 0.0 2.0 0.00 0.00 0.00 91 1014.7
20260510132403 66 20 0.0 2.0 0.00 0.00 0.00 91 1014.7
20260510132306 66 17 0.0 2.0 0.00 0.00 0.00 91 1014.6
20260510132203 66 15 0.0 2.0 0.00 0.00 0.00 91 1014.7
20260510132103 66 1 1.0 2.0 0.00 0.00 0.00 92 1014.7
20260510132004 66 357 1.0 2.0 0.00 0.00 0.00 92 1014.7
20260510131903 66 347 1.0 2.0 0.00 0.00 0.00 93 1014.7
20260510131804 66 340 1.0 3.0 0.00 0.00 0.00 93 1014.7
20260510131703 66 339 1.0 3.0 0.00 0.00 0.00 93 1014.7
20260510131603 66 338 1.0 3.0 0.00 0.00 0.00 94 1014.7
20260510131503 65 333 1.0 3.0 0.00 0.00 0.00 94 1014.6
20260510131403 65 323 1.0 3.0 0.00 0.00 0.00 94 1014.6
20260510131303 65 322 1.0 3.0 0.00 0.00 0.00 95 1014.7
20260510131204 65 322 1.0 3.0 0.00 0.00 0.00 95 1014.7
20260510131104 64 316 1.0 3.0 0.00 0.00 0.00 95 1014.7
20260510131003 64 312 0.0 3.0 0.00 0.00 0.00 95 1014.7
20260510130904 64 288 0.0 3.0 0.00 0.00 0.00 96 1014.7
20260510130817 64 243 0.0 2.0 0.00 0.00 0.00 96 1014.7
20260510130804 64 227 0.0 2.0 0.00 0.00 0.00 96 1014.7
20260510130703 64 227 0.0 2.0 0.00 0.00 0.00 96 1014.6
20260510130504 63 227 0.0 2.0 0.00 0.00 0.00 96 1014.7
20260510130418 63 0 0.0 0.0 0.00 0.00 0.00 96 1014.7
20260510130403 63 0 0.0 0.0 0.00 0.00 0.00 96 1014.6
20260510130304 63 0 0.0 0.0 0.00 0.00 0.00 96 1014.6
20260510130104 62 0 0.0 0.0 0.00 0.00 0.00 96 1014.6
20260510130004 62 0 0.0 0.0 0.00 0.00 0.00 96 1014.6
20260510125903 62 0 0.0 0.0 0.00 0.00 0.00 96 1014.6
20260510125803 62 0 0.0 0.0 0.00 0.00 0.00 96 1014.6
20260510125603 62 0 0.0 0.0 0.00 0.00 0.00 96 1014.6
20260510125503 62 0 0.0 0.0 0.00 0.00 0.00 96 1014.5
20260510125403 62 0 0.0 0.0 0.00 0.00 0.00 96 1014.5
20260510125306 61 0 0.0 0.0 0.00 0.00 0.00 97 1014.5
20260510125204 61 0 0.0 0.0 0.00 0.00 0.00 96 1014.4
20260510125103 61 0 0.0 0.0 0.00 0.00 0.00 96 1014.5
20260510125004 61 0 0.0 0.0 0.00 0.00 0.00 96 1014.5
20260510124903 61 0 0.0 0.0 0.00 0.00 0.00 96 1014.5
20260510124803 61 0 0.0 0.0 0.00 0.00 0.00 96 1014.5
20260510124703 60 0 0.0 0.0 0.00 0.00 0.00 96 1014.5
20260510124604 60 0 0.0 0.0 0.00 0.00 0.00 96 1014.4
20260510124504 60 0 0.0 0.0 0.00 0.00 0.00 96 1014.4
20260510124403 60 0 0.0 0.0 0.00 0.00 0.00 96 1014.3
20260510124304 60 0 0.0 0.0 0.00 0.00 0.00 96 1014.3
20260510124203 60 0 0.0 0.0 0.00 0.00 0.00 96 1014.3
20260510124003 60 0 0.0 0.0 0.00 0.00 0.00 96 1014.4
20260510123904 59 0 0.0 0.0 0.00 0.00 0.00 96 1014.4
20260510123803 59 0 0.0 0.0 0.00 0.00 0.00 96 1014.4
20260510123704 59 0 0.0 0.0 0.00 0.00 0.00 96 1014.4
20260510123603 59 0 0.0 0.0 0.00 0.00 0.00 96 1014.3
20260510123503 59 0 0.0 0.0 0.00 0.00 0.00 96 1014.3
20260510123403 59 0 0.0 0.0 0.00 0.00 0.00 96 1014.3
20260510123303 59 0 0.0 0.0 0.00 0.00 0.00 96 1014.3
20260510123203 58 0 0.0 0.0 0.00 0.00 0.00 96 1014.3
20260510123103 58 0 0.0 0.0 0.00 0.00 0.00 96 1014.3
20260510123003 58 0 0.0 0.0 0.00 0.00 0.00 96 1014.3
20260510122904 58 0 0.0 0.0 0.00 0.00 0.00 96 1014.3
20260510122703 57 0 0.0 0.0 0.00 0.00 0.00 96 1014.2
20260510122603 57 0 0.0 0.0 0.00 0.00 0.00 96 1014.2
20260510122503 57 0 0.0 0.0 0.00 0.00 0.00 96 1014.2
20260510122403 57 0 0.0 0.0 0.00 0.00 0.00 96 1014.3
20260510122306 56 0 0.0 0.0 0.00 0.00 0.00 96 1014.2
20260510122104 56 0 0.0 0.0 0.00 0.00 0.00 96 1014.2
20260510122004 56 0 0.0 0.0 0.00 0.00 0.00 96 1014.2
20260510121904 56 0 0.0 0.0 0.00 0.00 0.00 96 1014.2
20260510121803 56 0 0.0 0.0 0.00 0.00 0.00 96 1014.2
20260510121603 55 0 0.0 0.0 0.00 0.00 0.00 95 1014.2
20260510121503 55 0 0.0 0.0 0.00 0.00 0.00 95 1014.1
20260510121403 55 0 0.0 0.0 0.00 0.00 0.00 95 1014.1
20260510121303 55 0 0.0 0.0 0.00 0.00 0.00 95 1014.2
20260510121203 55 0 0.0 0.0 0.00 0.00 0.00 95 1014.2
20260510121104 55 0 0.0 0.0 0.00 0.00 0.00 95 1014.2
20260510121003 54 0 0.0 0.0 0.00 0.00 0.00 95 1014.1
20260510120803 54 0 0.0 0.0 0.00 0.00 0.00 95 1014.0
20260510120703 54 0 0.0 0.0 0.00 0.00 0.00 95 1014.0
20260510120603 54 0 0.0 0.0 0.00 0.00 0.00 95 1014.0
20260510120503 54 0 0.0 0.0 0.00 0.00 0.00 94 1014.0
20260510120404 54 0 0.0 0.0 0.00 0.00 0.00 94 1014.0
20260510120318 54 0 0.0 0.0 0.00 0.00 0.00 94 1014.0
20260510120303 53 0 0.0 0.0 0.00 0.00 0.00 94 1014.0
20260510120117 53 0 0.0 0.0 0.00 0.00 0.00 94 1013.9
20260510120004 53 0 0.0 0.0 0.00 0.00 0.00 94 1013.9
20260510115703 53 0 0.0 0.0 0.00 0.00 0.00 94 1014.0
20260510115603 53 0 0.0 0.0 0.00 0.00 0.00 94 1014.0
20260510115503 53 0 0.0 0.0 0.00 0.00 0.00 94 1014.0
20260510115403 53 0 0.0 0.0 0.00 0.00 0.00 94 1014.0
20260510115203 53 0 0.0 0.0 0.00 0.00 0.00 93 1013.9
20260510115103 53 0 0.0 0.0 0.00 0.00 0.00 93 1013.9
20260510115003 53 0 0.0 0.0 0.00 0.00 0.00 93 1013.9
20260510114903 53 0 0.0 0.0 0.00 0.00 0.00 93 1013.9
20260510114804 52 0 0.0 0.0 0.00 0.00 0.00 93 1013.9
20260510114704 52 0 0.0 0.0 0.00 0.00 0.00 93 1013.8
20260510114603 52 0 0.0 0.0 0.00 0.00 0.00 93 1013.8
20260510114503 52 0 0.0 0.0 0.00 0.00 0.00 93 1013.8
20260510114417 52 0 0.0 0.0 0.00 0.00 0.00 93 1013.8
20260510114403 52 0 0.0 0.0 0.00 0.00 0.00 93 1013.9
20260510114303 52 0 0.0 0.0 0.00 0.00 0.00 93 1013.9
20260510114103 52 0 0.0 0.0 0.00 0.00 0.00 93 1013.8
20260510114003 52 0 0.0 0.0 0.00 0.00 0.00 93 1013.8
20260510113904 52 0 0.0 0.0 0.00 0.00 0.00 93 1013.7
20260510113803 52 0 0.0 0.0 0.00 0.00 0.00 93 1013.7
20260510113703 52 0 0.0 0.0 0.00 0.00 0.00 93 1013.7
20260510113603 52 0 0.0 0.0 0.00 0.00 0.00 93 1013.7
20260510113504 52 0 0.0 0.0 0.00 0.00 0.00 93 1013.6
20260510113403 52 0 0.0 0.0 0.00 0.00 0.00 93 1013.5
20260510113303 52 0 0.0 0.0 0.00 0.00 0.00 93 1013.5
20260510113204 52 0 0.0 0.0 0.00 0.00 0.00 93 1013.5
20260510113103 52 0 0.0 0.0 0.00 0.00 0.00 93 1013.5
20260510113004 52 0 0.0 0.0 0.00 0.00 0.00 93 1013.5
20260510112903 52 0 0.0 0.0 0.00 0.00 0.00 93 1013.5
20260510112804 52 0 0.0 0.0 0.00 0.00 0.00 93 1013.5
20260510112703 52 0 0.0 0.0 0.00 0.00 0.00 93 1013.5
20260510112603 52 0 0.0 0.0 0.00 0.00 0.00 93 1013.5
20260510112503 52 0 0.0 0.0 0.00 0.00 0.00 93 1013.5
20260510112403 52 0 0.0 0.0 0.00 0.00 0.00 92 1013.4
20260510112306 52 0 0.0 0.0 0.00 0.00 0.00 92 1013.4
20260510112203 52 0 0.0 0.0 0.00 0.00 0.00 92 1013.5
20260510112103 52 0 0.0 0.0 0.00 0.00 0.00 92 1013.5
20260510112003 52 0 0.0 0.0 0.00 0.00 0.00 92 1013.5
20260510111903 52 0 0.0 0.0 0.00 0.00 0.00 92 1013.5
20260510111803 52 0 0.0 0.0 0.00 0.00 0.00 92 1013.5
20260510111704 52 0 0.0 0.0 0.00 0.00 0.00 92 1013.5
20260510111603 52 0 0.0 0.0 0.00 0.00 0.00 92 1013.5
20260510111503 52 0 0.0 0.0 0.00 0.00 0.00 92 1013.5
20260510111404 52 0 0.0 0.0 0.00 0.00 0.00 92 1013.5
20260510111303 52 0 0.0 0.0 0.00 0.00 0.00 92 1013.5
20260510111203 52 0 0.0 0.0 0.00 0.00 0.00 92 1013.5
20260510111103 52 0 0.0 0.0 0.00 0.00 0.00 92 1013.4
20260510111003 52 0 0.0 0.0 0.00 0.00 0.00 92 1013.4
20260510110903 52 0 0.0 0.0 0.00 0.00 0.00 92 1013.4
20260510110803 52 0 0.0 0.0 0.00 0.00 0.00 92 1013.3
20260510110703 52 0 0.0 0.0 0.00 0.00 0.00 92 1013.3
20260510110604 52 0 0.0 0.0 0.00 0.00 0.00 92 1013.3
20260510110518 52 0 0.0 0.0 0.00 0.00 0.00 92 1013.3
20260510110404 52 0 0.0 0.0 0.00 0.00 0.00 92 1013.3
20260510110104 52 0 0.0 0.0 0.00 0.00 0.00 92 1013.2
20260510110003 52 0 0.0 0.0 0.00 0.00 0.00 92 1013.2
20260510105903 52 0 0.0 0.0 0.00 0.00 0.00 92 1013.2
20260510105703 52 0 0.0 0.0 0.00 0.00 0.00 92 1013.2
20260510105604 52 0 0.0 0.0 0.00 0.00 0.00 92 1013.1
20260510105503 52 0 0.0 0.0 0.00 0.00 0.00 92 1013.2
20260510105403 52 0 0.0 0.0 0.00 0.00 0.00 92 1013.2
20260510105306 52 0 0.0 0.0 0.00 0.00 0.00 92 1013.1
20260510105203 52 0 0.0 0.0 0.00 0.00 0.00 92 1013.1
20260510105103 52 0 0.0 0.0 0.00 0.00 0.00 92 1013.1
20260510105004 52 0 0.0 0.0 0.00 0.00 0.00 92 1013.1
20260510104903 52 0 0.0 0.0 0.00 0.00 0.00 92 1013.1
20260510104704 52 0 0.0 0.0 0.00 0.00 0.00 92 1013.1
20260510104604 52 0 0.0 0.0 0.00 0.00 0.00 92 1013.1
20260510104503 52 0 0.0 0.0 0.00 0.00 0.00 92 1013.1
20260510104403 52 0 0.0 0.0 0.00 0.00 0.00 92 1013.1
20260510104304 52 0 0.0 0.0 0.00 0.00 0.00 92 1013.1
20260510104203 52 0 0.0 0.0 0.00 0.00 0.00 92 1013.1
20260510104103 52 0 0.0 0.0 0.00 0.00 0.00 92 1013.1
20260510104003 52 0 0.0 0.0 0.00 0.00 0.00 92 1013.1
20260510103903 52 0 0.0 0.0 0.00 0.00 0.00 92 1013.1
20260510103803 52 0 0.0 0.0 0.00 0.00 0.00 92 1013.0
20260510103719 52 0 0.0 0.0 0.00 0.00 0.00 92 1013.0
20260510103704 52 0 0.0 0.0 0.00 0.00 0.00 92 1013.1
20260510103518 52 0 0.0 0.0 0.00 0.00 0.00 92 1013.0
20260510103404 52 0 0.0 0.0 0.00 0.00 0.00 92 1013.0
20260510103203 52 0 0.0 0.0 0.00 0.00 0.00 92 1013.1
20260510103104 52 0 0.0 0.0 0.00 0.00 0.00 92 1013.1
20260510103003 52 0 0.0 0.0 0.00 0.00 0.00 92 1013.0
20260510102903 52 0 0.0 0.0 0.00 0.00 0.00 92 1013.0
20260510102818 52 0 0.0 0.0 0.00 0.00 0.00 92 1013.0
20260510102703 52 0 0.0 0.0 0.00 0.00 0.00 92 1013.0
20260510102503 52 0 0.0 0.0 0.00 0.00 0.00 92 1013.0
20260510102403 52 0 0.0 0.0 0.00 0.00 0.00 92 1013.0
20260510102306 52 0 0.0 0.0 0.00 0.00 0.00 92 1013.0
20260510102203 52 0 0.0 0.0 0.00 0.00 0.00 92 1012.9
20260510102003 52 0 0.0 0.0 0.00 0.00 0.00 92 1012.9
20260510101904 52 0 0.0 0.0 0.00 0.00 0.00 92 1012.9
20260510101804 52 0 0.0 0.0 0.00 0.00 0.00 92 1012.9
20260510101603 52 0 0.0 0.0 0.00 0.00 0.00 92 1012.9
20260510101504 52 0 0.0 0.0 0.00 0.00 0.00 92 1012.9
20260510101404 52 0 0.0 0.0 0.00 0.00 0.00 92 1012.9
20260510101303 52 0 0.0 0.0 0.00 0.00 0.00 92 1012.9
20260510101104 52 0 0.0 0.0 0.00 0.00 0.00 92 1012.9
20260510101004 52 0 0.0 0.0 0.00 0.00 0.00 92 1012.8
20260510100804 53 0 0.0 0.0 0.00 0.00 0.00 92 1012.8
20260510100703 53 0 0.0 0.0 0.00 0.00 0.00 92 1012.7
20260510100603 53 0 0.0 0.0 0.00 0.00 0.00 92 1012.7
20260510100503 53 0 0.0 0.0 0.00 0.00 0.00 92 1012.7
20260510100403 53 0 0.0 0.0 0.00 0.00 0.00 92 1012.7
20260510100303 53 0 0.0 0.0 0.00 0.00 0.00 92 1012.7
20260510100204 53 0 0.0 0.0 0.00 0.00 0.00 92 1012.6
20260510100104 53 0 0.0 0.0 0.00 0.00 0.00 92 1012.6
20260510100004 53 0 0.0 0.0 0.00 0.00 0.00 92 1012.6
20260510095804 53 0 0.0 0.0 0.00 0.00 0.00 92 1012.6
20260510095703 53 0 0.0 0.0 0.00 0.00 0.00 92 1012.6
20260510095603 53 0 0.0 0.0 0.00 0.00 0.00 92 1012.6
20260510095503 53 0 0.0 0.0 0.00 0.00 0.00 92 1012.6
20260510095404 53 0 0.0 0.0 0.00 0.00 0.00 92 1012.5
20260510095104 53 0 0.0 0.0 0.00 0.00 0.00 92 1012.5
20260510095003 53 0 0.0 0.0 0.00 0.00 0.00 92 1012.5
20260510094903 53 0 0.0 0.0 0.00 0.00 0.00 92 1012.5
20260510094804 53 0 0.0 0.0 0.00 0.00 0.00 92 1012.5
20260510094703 53 0 0.0 0.0 0.00 0.00 0.00 92 1012.5
20260510094603 53 0 0.0 0.0 0.00 0.00 0.00 92 1012.4
20260510094503 53 0 0.0 0.0 0.00 0.00 0.00 92 1012.4
20260510094403 53 0 0.0 0.0 0.00 0.00 0.00 92 1012.4
20260510094304 53 0 0.0 0.0 0.00 0.00 0.00 92 1012.4
20260510094204 53 0 0.0 0.0 0.00 0.00 0.00 92 1012.4
20260510094118 53 0 0.0 0.0 0.00 0.00 0.00 92 1012.4
20260510094004 53 0 0.0 0.0 0.00 0.00 0.00 92 1012.4
20260510093804 53 0 0.0 0.0 0.00 0.00 0.00 92 1012.4
20260510093703 53 0 0.0 0.0 0.00 0.00 0.00 92 1012.4
20260510093603 53 0 0.0 0.0 0.00 0.00 0.00 92 1012.3
20260510093503 53 0 0.0 0.0 0.00 0.00 0.00 92 1012.3
20260510093403 53 0 0.0 0.0 0.00 0.00 0.00 92 1012.3
20260510093303 53 0 0.0 0.0 0.00 0.00 0.00 92 1012.3
20260510093204 53 0 0.0 0.0 0.00 0.00 0.00 92 1012.3
20260510093103 53 0 0.0 0.0 0.00 0.00 0.00 92 1012.3
20260510093003 53 0 0.0 0.0 0.00 0.00 0.00 92 1012.4
20260510092904 53 0 0.0 0.0 0.00 0.00 0.00 92 1012.4
20260510092803 53 0 0.0 0.0 0.00 0.00 0.00 92 1012.4
20260510092703 53 0 0.0 0.0 0.00 0.00 0.00 92 1012.4
20260510092603 53 0 0.0 0.0 0.00 0.00 0.00 92 1012.4
20260510092503 53 0 0.0 0.0 0.00 0.00 0.00 92 1012.3
20260510092403 53 0 0.0 0.0 0.00 0.00 0.00 92 1012.3
20260510092306 53 0 0.0 0.0 0.00 0.00 0.00 92 1012.4
20260510092204 53 0 0.0 0.0 0.00 0.00 0.00 92 1012.4
20260510092103 53 0 0.0 0.0 0.00 0.00 0.00 92 1012.4
20260510092004 53 0 0.0 0.0 0.00 0.00 0.00 92 1012.3
20260510091904 53 0 0.0 0.0 0.00 0.00 0.00 92 1012.3
20260510091803 53 0 0.0 0.0 0.00 0.00 0.00 92 1012.2
20260510091717 53 0 0.0 0.0 0.00 0.00 0.00 92 1012.2
20260510091703 53 0 0.0 0.0 0.00 0.00 0.00 92 1012.3
20260510091617 53 0 0.0 0.0 0.00 0.00 0.00 92 1012.3
20260510091304 53 0 0.0 0.0 0.00 0.00 0.00 92 1012.2
20260510091203 53 0 0.0 0.0 0.00 0.00 0.00 92 1012.3
20260510091118 53 0 0.0 0.0 0.00 0.00 0.00 92 1012.3
20260510091003 53 0 0.0 0.0 0.00 0.00 0.00 92 1012.2
20260510090803 53 0 0.0 0.0 0.00 0.00 0.00 92 1012.2
20260510090703 53 0 0.0 0.0 0.00 0.00 0.00 92 1012.2
20260510090603 53 0 0.0 0.0 0.00 0.00 0.00 92 1012.2
20260510090504 53 0 0.0 0.0 0.00 0.00 0.00 92 1012.2
20260510090404 53 0 0.0 0.0 0.00 0.00 0.00 92 1012.2
20260510090304 53 0 0.0 0.0 0.00 0.00 0.00 92 1012.2
20260510090104 53 0 0.0 0.0 0.00 0.00 0.00 92 1012.2
20260510090003 53 0 0.0 0.0 0.00 0.00 0.00 92 1012.2
20260510085904 53 0 0.0 0.0 0.00 0.00 0.00 92 1012.2
20260510085803 53 0 0.0 0.0 0.00 0.00 0.00 92 1012.2
20260510085703 53 0 0.0 0.0 0.00 0.00 0.00 92 1012.2
20260510085603 53 0 0.0 0.0 0.00 0.00 0.00 92 1012.2
20260510085504 53 0 0.0 0.0 0.00 0.00 0.00 92 1012.2
20260510085418 53 0 0.0 0.0 0.00 0.00 0.00 92 1012.2
20260510085306 53 0 0.0 0.0 0.00 0.00 0.00 92 1012.2
20260510085103 53 0 0.0 0.0 0.00 0.00 0.00 92 1012.1
20260510085003 53 0 0.0 0.0 0.00 0.00 0.00 92 1012.2
20260510084903 53 0 0.0 0.0 0.00 0.00 0.00 92 1012.2
20260510084803 53 0 0.0 0.0 0.00 0.00 0.00 92 1012.2
20260510084704 53 0 0.0 0.0 0.00 0.00 0.00 92 1012.2
20260510084603 53 0 0.0 0.0 0.00 0.00 0.00 92 1012.2
20260510084503 53 0 0.0 0.0 0.00 0.00 0.00 92 1012.2
20260510084404 53 0 0.0 0.0 0.00 0.00 0.00 92 1012.2
20260510084303 53 0 0.0 0.0 0.00 0.00 0.00 92 1012.2
20260510084204 53 0 0.0 0.0 0.00 0.00 0.00 92 1012.2
20260510084118 53 0 0.0 0.0 0.00 0.00 0.00 92 1012.2
20260510083804 53 0 0.0 0.0 0.00 0.00 0.00 92 1012.2
20260510083703 53 0 0.0 0.0 0.00 0.00 0.00 92 1012.2
20260510083603 53 0 0.0 0.0 0.00 0.00 0.00 92 1012.2
20260510083403 53 0 0.0 0.0 0.00 0.00 0.00 92 1012.0
20260510083303 53 0 0.0 0.0 0.00 0.00 0.00 92 1012.0
20260510083203 53 0 0.0 0.0 0.00 0.00 0.00 92 1012.0
20260510083003 53 0 0.0 0.0 0.00 0.00 0.00 92 1012.0
20260510082903 53 0 0.0 0.0 0.00 0.00 0.00 92 1012.0
20260510082803 53 0 0.0 0.0 0.00 0.00 0.00 92 1011.9
20260510082604 53 0 0.0 0.0 0.00 0.00 0.00 92 1011.8
20260510082503 53 0 0.0 0.0 0.00 0.00 0.00 92 1011.8
20260510082404 53 0 0.0 0.0 0.00 0.00 0.00 92 1011.8
20260510082203 53 0 0.0 0.0 0.00 0.00 0.00 92 1011.8
20260510082104 53 0 0.0 0.0 0.00 0.00 0.00 92 1011.8
20260510082004 53 0 0.0 0.0 0.00 0.00 0.00 92 1011.8
20260510081903 53 0 0.0 0.0 0.00 0.00 0.00 92 1011.7
20260510081703 53 0 0.0 0.0 0.00 0.00 0.00 92 1011.6
20260510081604 53 0 0.0 0.0 0.00 0.00 0.00 92 1011.6
20260510081503 53 0 0.0 0.0 0.00 0.00 0.00 92 1011.6
20260510081403 53 0 0.0 0.0 0.00 0.00 0.00 92 1011.5
20260510081304 53 0 0.0 0.0 0.00 0.00 0.00 92 1011.5
20260510081203 53 0 0.0 0.0 0.00 0.00 0.00 92 1011.5
20260510081103 53 0 0.0 0.0 0.00 0.00 0.00 92 1011.5
20260510081003 53 0 0.0 0.0 0.00 0.00 0.00 92 1011.5
20260510080903 53 0 0.0 0.0 0.00 0.00 0.00 92 1011.5
20260510080803 53 0 0.0 0.0 0.00 0.00 0.00 92 1011.4
20260510080704 53 0 0.0 0.0 0.00 0.00 0.00 92 1011.4
20260510080604 53 0 0.0 0.0 0.00 0.00 0.00 92 1011.5
20260510080504 53 0 0.0 0.0 0.00 0.00 0.00 92 1011.4
20260510080303 53 0 0.0 0.0 0.00 0.00 0.00 92 1011.5
20260510080203 53 0 0.0 0.0 0.00 0.00 0.00 92 1011.5
20260510080103 53 0 0.0 0.0 0.00 0.00 0.00 91 1011.5
20260510080003 53 0 0.0 0.0 0.00 0.00 0.00 91 1011.5
20260510075903 53 0 0.0 0.0 0.00 0.00 0.00 91 1011.5
20260510075803 53 0 0.0 0.0 0.00 0.00 0.00 92 1011.4
20260510075603 53 0 0.0 0.0 0.00 0.00 0.00 92 1011.4
20260510075504 53 0 0.0 0.0 0.00 0.00 0.00 92 1011.4
20260510075306 53 0 0.0 0.0 0.00 0.00 0.00 92 1011.4
20260510075203 53 0 0.0 0.0 0.00 0.00 0.00 92 1011.4
20260510075103 53 0 0.0 0.0 0.00 0.00 0.00 92 1011.4
20260510075004 53 0 0.0 0.0 0.00 0.00 0.00 92 1011.4
20260510074904 53 0 0.0 0.0 0.00 0.00 0.00 92 1011.4
20260510074803 53 0 0.0 0.0 0.00 0.00 0.00 91 1011.3
20260510074703 53 0 0.0 0.0 0.00 0.00 0.00 91 1011.3
20260510074603 53 0 0.0 0.0 0.00 0.00 0.00 91 1011.3
20260510074404 53 0 0.0 0.0 0.00 0.00 0.00 91 1011.3
20260510074304 53 0 0.0 0.0 0.00 0.00 0.00 91 1011.3
20260510074204 53 0 0.0 0.0 0.00 0.00 0.00 91 1011.3
20260510074103 53 0 0.0 0.0 0.00 0.00 0.00 91 1011.3
20260510074004 53 0 0.0 0.0 0.00 0.00 0.00 91 1011.2
20260510073904 53 0 0.0 0.0 0.00 0.00 0.00 91 1011.3
20260510073803 53 0 0.0 0.0 0.00 0.00 0.00 91 1011.3
20260510073704 53 0 0.0 0.0 0.00 0.00 0.00 91 1011.3
20260510073603 53 0 0.0 0.0 0.00 0.00 0.00 91 1011.3
20260510073503 53 0 0.0 0.0 0.00 0.00 0.00 91 1011.3
20260510073403 53 0 0.0 0.0 0.00 0.00 0.00 91 1011.3
20260510073303 53 0 0.0 0.0 0.00 0.00 0.00 91 1011.3
20260510073203 53 0 0.0 0.0 0.00 0.00 0.00 91 1011.2
20260510073103 53 0 0.0 0.0 0.00 0.00 0.00 91 1011.2
20260510073003 53 0 0.0 0.0 0.00 0.00 0.00 91 1011.2
20260510072903 53 0 0.0 0.0 0.00 0.00 0.00 91 1011.2
20260510072819 53 0 0.0 0.0 0.00 0.00 0.00 91 1011.2
20260510072704 53 0 0.0 0.0 0.00 0.00 0.00 91 1011.2
20260510072503 53 0 0.0 0.0 0.00 0.00 0.00 91 1011.2
20260510072404 53 0 0.0 0.0 0.00 0.00 0.00 91 1011.2
20260510072203 53 0 0.0 0.0 0.00 0.00 0.00 91 1011.2
20260510072103 53 0 0.0 0.0 0.00 0.00 0.00 91 1011.2
20260510072003 53 0 0.0 0.0 0.00 0.00 0.00 91 1011.2
20260510071903 53 0 0.0 0.0 0.00 0.00 0.00 91 1011.2
20260510071804 53 0 0.0 0.0 0.00 0.00 0.00 91 1011.2
20260510071703 53 0 0.0 0.0 0.00 0.00 0.00 91 1011.2
20260510071604 53 0 0.0 0.0 0.00 0.00 0.00 91 1011.1
20260510071503 53 0 0.0 0.0 0.00 0.00 0.00 91 1011.1
20260510071403 53 0 0.0 0.0 0.00 0.00 0.00 91 1011.1
20260510071303 53 0 0.0 0.0 0.00 0.00 0.00 91 1011.1
20260510071204 53 0 0.0 0.0 0.00 0.00 0.00 91 1011.2
20260510071003 53 0 0.0 0.0 0.00 0.00 0.00 91 1011.1
20260510070903 53 0 0.0 0.0 0.00 0.00 0.00 91 1011.2
20260510070803 53 0 0.0 0.0 0.00 0.00 0.00 91 1011.2
20260510070703 53 0 0.0 0.0 0.00 0.00 0.00 91 1011.3
20260510070603 53 0 0.0 0.0 0.00 0.00 0.00 91 1011.2
20260510070503 53 0 0.0 0.0 0.00 0.00 0.00 91 1011.2
20260510070403 53 0 0.0 0.0 0.00 0.00 0.00 91 1011.2
20260510070303 53 0 0.0 0.0 0.00 0.00 0.00 91 1011.2
20260510070203 53 0 0.0 0.0 0.00 0.00 0.00 91 1011.2
20260510070103 53 0 0.0 0.0 0.00 0.00 0.00 91 1011.2
20260510065903 53 0 0.0 0.0 0.00 0.00 0.00 91 1011.3
20260510065803 53 0 0.0 0.0 0.00 0.00 0.00 91 1011.2
20260510065703 53 0 0.0 0.0 0.00 0.00 0.00 91 1011.2
20260510065604 53 0 0.0 0.0 0.00 0.00 0.00 91 1011.2
20260510065503 53 0 0.0 0.0 0.00 0.00 0.00 91 1011.2
20260510065403 53 0 0.0 0.0 0.00 0.00 0.00 91 1011.1
20260510065306 53 0 0.0 0.0 0.00 0.00 0.00 91 1011.1
20260510065216 53 0 0.0 0.0 0.00 0.00 0.00 91 1011.1
20260510064903 53 0 0.0 0.0 0.00 0.00 0.00 91 1011.2
20260510064804 53 0 0.0 0.0 0.00 0.00 0.00 91 1011.2
20260510064703 53 0 0.0 0.0 0.00 0.00 0.00 91 1011.2
20260510064604 53 0 0.0 0.0 0.00 0.00 0.00 91 1011.2
20260510064503 53 0 0.0 0.0 0.00 0.00 0.00 91 1011.2
20260510064403 53 0 0.0 0.0 0.00 0.00 0.00 91 1011.2
20260510064303 53 0 0.0 0.0 0.00 0.00 0.00 91 1011.2
20260510064203 53 0 0.0 0.0 0.00 0.00 0.00 91 1011.2
20260510064003 54 0 0.0 0.0 0.00 0.00 0.00 90 1011.3
20260510063903 53 0 0.0 0.0 0.00 0.00 0.00 90 1011.3
20260510063803 53 0 0.0 0.0 0.00 0.00 0.00 90 1011.3
20260510063704 54 0 0.0 0.0 0.00 0.00 0.00 90 1011.3
20260510063603 53 0 0.0 0.0 0.00 0.00 0.00 90 1011.3
20260510063503 54 0 0.0 0.0 0.00 0.00 0.00 90 1011.3
20260510063404 54 0 0.0 0.0 0.00 0.00 0.00 90 1011.3
20260510063304 54 0 0.0 0.0 0.00 0.00 0.00 90 1011.3
20260510063004 54 0 0.0 0.0 0.00 0.00 0.00 90 1011.3
20260510062903 54 0 0.0 0.0 0.00 0.00 0.00 90 1011.3
20260510062804 54 0 0.0 0.0 0.00 0.00 0.00 90 1011.3
20260510062704 54 0 0.0 0.0 0.00 0.00 0.00 90 1011.3
20260510062604 54 0 0.0 0.0 0.00 0.00 0.00 90 1011.3
20260510062503 54 0 0.0 0.0 0.00 0.00 0.00 90 1011.3
20260510062403 54 0 0.0 0.0 0.00 0.00 0.00 90 1011.3
20260510062306 54 0 0.0 0.0 0.00 0.00 0.00 90 1011.3
20260510062204 54 0 0.0 0.0 0.00 0.00 0.00 90 1011.3
20260510062104 54 0 0.0 0.0 0.00 0.00 0.00 90 1011.3
20260510062003 54 0 0.0 0.0 0.00 0.00 0.00 90 1011.3
20260510061904 54 0 0.0 0.0 0.00 0.00 0.00 90 1011.3
20260510061803 54 0 0.0 0.0 0.00 0.00 0.00 90 1011.4
20260510061603 54 0 0.0 0.0 0.00 0.00 0.00 90 1011.3
20260510061503 54 0 0.0 0.0 0.00 0.00 0.00 90 1011.3
20260510061403 54 0 0.0 0.0 0.00 0.00 0.00 90 1011.3
20260510061304 54 0 0.0 0.0 0.00 0.00 0.00 90 1011.3
20260510061203 54 0 0.0 0.0 0.00 0.00 0.00 90 1011.3
20260510061103 54 0 0.0 0.0 0.00 0.00 0.00 90 1011.3
20260510061003 54 0 0.0 0.0 0.00 0.00 0.00 90 1011.3
20260510060803 54 0 0.0 0.0 0.00 0.00 0.00 90 1011.3
20260510060703 54 0 0.0 0.0 0.00 0.00 0.00 90 1011.4
20260510060603 54 0 0.0 0.0 0.00 0.00 0.00 90 1011.4
20260510060504 54 0 0.0 0.0 0.00 0.00 0.00 90 1011.4
20260510060403 54 0 0.0 0.0 0.00 0.00 0.00 90 1011.3
20260510060303 54 0 0.0 0.0 0.00 0.00 0.00 90 1011.3
20260510060203 54 0 0.0 0.0 0.00 0.00 0.00 90 1011.4
20260510060104 54 0 0.0 0.0 0.00 0.00 0.00 90 1011.4
20260510055903 54 0 0.0 0.0 0.00 0.00 0.00 90 1011.4
20260510055804 54 0 0.0 0.0 0.00 0.00 0.00 89 1011.4
20260510055704 54 0 0.0 0.0 0.00 0.00 0.00 89 1011.4
20260510055503 54 0 0.0 0.0 0.00 0.00 0.00 89 1011.4
20260510055403 54 0 0.0 0.0 0.00 0.00 0.00 89 1011.4
20260510055306 54 0 0.0 0.0 0.00 0.00 0.00 89 1011.4
20260510055203 54 0 0.0 0.0 0.00 0.00 0.00 89 1011.4
20260510055103 54 0 0.0 0.0 0.00 0.00 0.00 89 1011.4
20260510055003 54 0 0.0 0.0 0.00 0.00 0.00 89 1011.4
20260510054903 54 0 0.0 0.0 0.00 0.00 0.00 89 1011.4
20260510054803 54 0 0.0 0.0 0.00 0.00 0.00 89 1011.4
20260510054703 54 0 0.0 0.0 0.00 0.00 0.00 89 1011.5
20260510054603 54 0 0.0 0.0 0.00 0.00 0.00 89 1011.5
20260510054504 54 0 0.0 0.0 0.00 0.00 0.00 89 1011.5
20260510054404 54 0 0.0 0.0 0.00 0.00 0.00 89 1011.5
20260510054203 54 0 0.0 0.0 0.00 0.00 0.00 89 1011.4
20260510054103 54 0 0.0 0.0 0.00 0.00 0.00 89 1011.4
20260510054003 54 0 0.0 0.0 0.00 0.00 0.00 89 1011.4
20260510053904 54 0 0.0 0.0 0.00 0.00 0.00 89 1011.4
20260510053819 54 0 0.0 0.0 0.00 0.00 0.00 89 1011.4
20260510053804 54 0 0.0 0.0 0.00 0.00 0.00 89 1011.5
20260510053703 54 0 0.0 0.0 0.00 0.00 0.00 89 1011.5
20260510053504 54 0 0.0 0.0 0.00 0.00 0.00 89 1011.4
20260510053404 54 0 0.0 0.0 0.00 0.00 0.00 89 1011.4
20260510053303 54 0 0.0 0.0 0.00 0.00 0.00 89 1011.4
20260510053203 54 0 0.0 0.0 0.00 0.00 0.00 89 1011.4
20260510053103 54 0 0.0 0.0 0.00 0.00 0.00 88 1011.4
20260510053003 54 0 0.0 0.0 0.00 0.00 0.00 88 1011.4
20260510052903 54 0 0.0 0.0 0.00 0.00 0.00 88 1011.4
20260510052803 54 0 0.0 0.0 0.00 0.00 0.00 88 1011.4
20260510052703 54 0 0.0 0.0 0.00 0.00 0.00 88 1011.4
20260510052503 54 0 0.0 0.0 0.00 0.00 0.00 88 1011.5
20260510052404 54 0 0.0 0.0 0.00 0.00 0.00 88 1011.5
20260510052306 54 0 0.0 0.0 0.00 0.00 0.00 89 1011.4
20260510052203 54 0 0.0 0.0 0.00 0.00 0.00 88 1011.4
20260510052103 54 0 0.0 0.0 0.00 0.00 0.00 88 1011.4
20260510052003 54 0 0.0 0.0 0.00 0.00 0.00 88 1011.4
20260510051903 54 0 0.0 0.0 0.00 0.00 0.00 88 1011.4
20260510051804 54 0 0.0 0.0 0.00 0.00 0.00 88 1011.4
20260510051703 54 0 0.0 0.0 0.00 0.00 0.00 88 1011.4
20260510051603 54 0 0.0 0.0 0.00 0.00 0.00 88 1011.4
20260510051503 54 0 0.0 0.0 0.00 0.00 0.00 88 1011.4
20260510051303 54 0 0.0 0.0 0.00 0.00 0.00 88 1011.4
20260510051204 54 0 0.0 0.0 0.00 0.00 0.00 88 1011.4
20260510051104 54 0 0.0 0.0 0.00 0.00 0.00 88 1011.4
20260510051004 55 0 0.0 0.0 0.00 0.00 0.00 88 1011.4
20260510050804 55 0 0.0 0.0 0.00 0.00 0.00 88 1011.4
20260510050703 55 0 0.0 0.0 0.00 0.00 0.00 88 1011.4
20260510050604 55 0 0.0 0.0 0.00 0.00 0.00 88 1011.4
20260510050504 55 0 0.0 0.0 0.00 0.00 0.00 88 1011.4
20260510050403 55 0 0.0 0.0 0.00 0.00 0.00 87 1011.4
20260510050204 55 0 0.0 0.0 0.00 0.00 0.00 87 1011.4
20260510050104 55 0 0.0 0.0 0.00 0.00 0.00 87 1011.4
20260510050003 55 0 0.0 0.0 0.00 0.00 0.00 87 1011.4
20260510045903 55 0 0.0 0.0 0.00 0.00 0.00 87 1011.4
20260510045803 55 0 0.0 0.0 0.00 0.00 0.00 87 1011.4
20260510045603 55 0 0.0 0.0 0.00 0.00 0.00 87 1011.4
20260510045503 55 0 0.0 0.0 0.00 0.00 0.00 87 1011.4
20260510045403 55 0 0.0 0.0 0.00 0.00 0.00 87 1011.4
20260510045306 55 0 0.0 0.0 0.00 0.00 0.00 87 1011.3
20260510045103 55 0 0.0 0.0 0.00 0.00 0.00 87 1011.3
20260510045003 55 0 0.0 0.0 0.00 0.00 0.00 87 1011.3
20260510044903 55 0 0.0 0.0 0.00 0.00 0.00 87 1011.3
20260510044804 55 0 0.0 0.0 0.00 0.00 0.00 87 1011.3
20260510044704 55 0 0.0 0.0 0.00 0.00 0.00 87 1011.3
20260510044603 55 0 0.0 0.0 0.00 0.00 0.00 87 1011.3
20260510044503 55 0 0.0 0.0 0.00 0.00 0.00 87 1011.3
20260510044403 55 0 0.0 0.0 0.00 0.00 0.00 87 1011.3
20260510044303 55 0 0.0 0.0 0.00 0.00 0.00 87 1011.3
20260510044103 55 0 0.0 0.0 0.00 0.00 0.00 87 1011.3
20260510044003 55 0 0.0 0.0 0.00 0.00 0.00 87 1011.3
20260510043904 55 0 0.0 0.0 0.00 0.00 0.00 87 1011.3
20260510043804 55 0 0.0 0.0 0.00 0.00 0.00 87 1011.3
20260510043703 55 0 0.0 0.0 0.00 0.00 0.00 87 1011.3
20260510043604 55 0 0.0 0.0 0.00 0.00 0.00 87 1011.3
20260510043504 55 0 0.0 0.0 0.00 0.00 0.00 87 1011.3
20260510043304 55 0 0.0 0.0 0.00 0.00 0.00 87 1011.2
20260510043203 55 0 0.0 0.0 0.00 0.00 0.00 87 1011.2
20260510043103 55 0 0.0 0.0 0.00 0.00 0.00 87 1011.2
20260510043004 55 0 0.0 0.0 0.00 0.00 0.00 87 1011.1
20260510042908 55 0 0.0 0.0 0.00 0.00 0.00 87 1011.1
20260510042803 55 0 0.0 0.0 0.00 0.00 0.00 87 1011.1
20260510042704 55 0 0.0 0.0 0.00 0.00 0.00 87 1011.1
20260510042503 56 0 0.0 0.0 0.00 0.00 0.00 87 1011.1
20260510042403 56 0 0.0 0.0 0.00 0.00 0.00 87 1011.1
20260510042305 56 0 0.0 0.0 0.00 0.00 0.00 87 1011.1
20260510042203 56 0 0.0 0.0 0.00 0.00 0.00 87 1011.1
20260510042104 56 0 0.0 0.0 0.00 0.00 0.00 87 1011.1
20260510042003 56 0 0.0 0.0 0.00 0.00 0.00 87 1011.1
20260510041917 56 0 0.0 0.0 0.00 0.00 0.00 87 1011.1
20260510041804 56 0 0.0 0.0 0.00 0.00 0.00 87 1011.1
20260510041603 56 0 0.0 0.0 0.00 0.00 0.00 87 1011.1
20260510041503 56 0 0.0 0.0 0.00 0.00 0.00 87 1011.2
20260510041404 56 0 0.0 0.0 0.00 0.00 0.00 87 1011.2
20260510041303 56 0 0.0 0.0 0.00 0.00 0.00 87 1011.2
20260510041103 56 0 0.0 0.0 0.00 0.00 0.00 87 1011.2
20260510041003 56 0 0.0 0.0 0.00 0.00 0.00 87 1011.2
20260510040904 56 0 0.0 0.0 0.00 0.00 0.00 87 1011.2
20260510040804 56 0 0.0 0.0 0.00 0.00 0.00 87 1011.2
20260510040704 56 0 0.0 0.0 0.00 0.00 0.00 86 1011.2
20260510040603 56 0 0.0 0.0 0.00 0.00 0.00 86 1011.2
20260510040503 56 0 0.0 0.0 0.00 0.00 0.00 86 1011.3
20260510040404 56 0 0.0 0.0 0.00 0.00 0.00 86 1011.3
20260510040204 56 0 0.0 0.0 0.00 0.00 0.00 87 1011.2
20260510040003 56 0 0.0 0.0 0.00 0.00 0.00 87 1011.2
20260510035903 56 0 0.0 0.0 0.00 0.00 0.00 87 1011.2
20260510035804 56 0 0.0 0.0 0.00 0.00 0.00 87 1011.2
20260510035603 56 0 0.0 0.0 0.00 0.00 0.00 87 1011.2
20260510035504 56 0 0.0 0.0 0.00 0.00 0.00 87 1011.2
20260510035404 56 0 0.0 0.0 0.00 0.00 0.00 87 1011.2
20260510035306 56 0 0.0 0.0 0.00 0.00 0.00 87 1011.2
20260510035203 56 0 0.0 0.0 0.00 0.00 0.00 87 1011.1
20260510035103 56 0 0.0 0.0 0.00 0.00 0.00 87 1011.2
20260510034903 56 0 0.0 0.0 0.00 0.00 0.00 87 1011.2
20260510034803 56 0 0.0 0.0 0.00 0.00 0.00 87 1011.1
20260510034704 56 0 0.0 0.0 0.00 0.00 0.00 87 1011.1
20260510034604 56 0 0.0 0.0 0.00 0.00 0.00 87 1011.2
20260510034504 56 0 0.0 0.0 0.00 0.00 0.00 87 1011.2
20260510034404 56 0 0.0 0.0 0.00 0.00 0.00 87 1011.1
20260510034303 56 0 0.0 0.0 0.00 0.00 0.00 87 1011.2
20260510034204 56 0 0.0 0.0 0.00 0.00 0.00 87 1011.2
20260510034104 56 0 0.0 0.0 0.00 0.00 0.00 87 1011.2
20260510034003 56 0 0.0 0.0 0.00 0.00 0.00 87 1011.2
20260510033917 56 0 0.0 0.0 0.00 0.00 0.00 87 1011.2
20260510033804 56 0 0.0 0.0 0.00 0.00 0.00 87 1011.2
20260510033604 56 0 0.0 0.0 0.00 0.00 0.00 87 1011.1
20260510033504 56 0 0.0 0.0 0.00 0.00 0.00 87 1011.1
20260510033403 56 0 0.0 0.0 0.00 0.00 0.00 87 1011.2
20260510033303 56 0 0.0 0.0 0.00 0.00 0.00 87 1011.2
20260510033204 56 0 0.0 0.0 0.00 0.00 0.00 87 1011.2
20260510033003 56 0 0.0 0.0 0.00 0.00 0.00 87 1011.2
20260510032903 56 0 0.0 0.0 0.00 0.00 0.00 87 1011.2
20260510032804 56 0 0.0 0.0 0.00 0.00 0.00 87 1011.1
20260510032603 56 0 0.0 0.0 0.00 0.00 0.00 87 1011.1
20260510032503 56 0 0.0 0.0 0.00 0.00 0.00 87 1011.1
20260510032403 56 0 0.0 0.0 0.00 0.00 0.00 87 1011.1
20260510032306 56 0 0.0 0.0 0.00 0.00 0.00 87 1011.1
20260510032204 56 0 0.0 0.0 0.00 0.00 0.00 87 1011.1
20260510032103 56 0 0.0 0.0 0.00 0.00 0.00 87 1011.1
20260510032003 56 0 0.0 0.0 0.00 0.00 0.00 87 1011.1
20260510031803 56 0 0.0 0.0 0.00 0.00 0.00 87 1011.0
20260510031703 56 0 0.0 0.0 0.00 0.00 0.00 87 1011.0
20260510031604 56 0 0.0 0.0 0.00 0.00 0.00 88 1011.0
20260510031404 56 0 0.0 0.0 0.00 0.00 0.00 88 1011.0
20260510031304 56 0 0.0 0.0 0.00 0.00 0.00 88 1010.9
20260510031203 57 0 0.0 0.0 0.00 0.00 0.00 88 1011.0
20260510031103 57 0 0.0 0.0 0.00 0.00 0.00 88 1011.0
20260510031003 57 0 0.0 0.0 0.00 0.00 0.00 88 1010.9
20260510030903 57 0 0.0 0.0 0.00 0.00 0.00 87 1010.9
20260510030704 57 0 0.0 0.0 0.00 0.00 0.00 87 1010.9
20260510030603 57 0 0.0 0.0 0.00 0.00 0.00 87 1010.9
20260510030303 57 0 0.0 0.0 0.00 0.00 0.00 87 1010.9
20260510030204 57 0 0.0 0.0 0.00 0.00 0.00 87 1010.9
20260510030103 57 0 0.0 0.0 0.00 0.00 0.00 87 1010.9
20260510030003 57 0 0.0 0.0 0.00 0.00 0.00 87 1010.8
20260510025903 57 0 0.0 0.0 0.00 0.00 0.00 87 1010.8
20260510025817 57 0 0.0 0.0 0.00 0.00 0.00 86 1010.8
20260510025703 57 0 0.0 0.0 0.00 0.00 0.00 86 1010.8
20260510025617 57 0 0.0 0.0 0.00 0.00 0.00 86 1010.8
20260510025503 57 0 0.0 0.0 0.00 0.00 0.00 86 1010.7
20260510025306 57 0 0.0 0.0 0.00 0.00 0.00 86 1010.7
20260510025203 57 0 0.0 0.0 0.00 0.00 0.00 86 1010.7
20260510025104 57 0 0.0 0.0 0.00 0.00 0.00 86 1010.7
20260510025003 57 0 0.0 0.0 0.00 0.00 0.00 86 1010.7
20260510024804 57 0 0.0 0.0 0.00 0.00 0.00 85 1010.7
20260510024704 57 0 0.0 0.0 0.00 0.00 0.00 85 1010.7
20260510024603 57 0 0.0 0.0 0.00 0.00 0.00 86 1010.7
20260510024504 57 0 0.0 0.0 0.00 0.00 0.00 86 1010.6
20260510024303 58 0 0.0 0.0 0.00 0.00 0.00 86 1010.6
20260510024203 58 0 0.0 0.0 0.00 0.00 0.00 86 1010.6
20260510024003 58 0 0.0 0.0 0.00 0.00 0.00 86 1010.6
20260510023903 58 0 0.0 0.0 0.00 0.00 0.00 86 1010.5
20260510023803 58 0 0.0 0.0 0.00 0.00 0.00 86 1010.5
20260510023703 58 0 0.0 0.0 0.00 0.00 0.00 85 1010.5
20260510023603 58 0 0.0 0.0 0.00 0.00 0.00 85 1010.6
20260510023504 58 0 0.0 0.0 0.00 0.00 0.00 85 1010.6
20260510023403 58 0 0.0 0.0 0.00 0.00 0.00 85 1010.5
20260510023303 58 0 0.0 0.0 0.00 0.00 0.00 85 1010.5
20260510023103 58 0 0.0 0.0 0.00 0.00 0.00 85 1010.6
20260510023003 58 0 0.0 0.0 0.00 0.00 0.00 85 1010.6
20260510022804 58 0 0.0 0.0 0.00 0.00 0.00 84 1010.6
20260510022703 58 0 0.0 0.0 0.00 0.00 0.00 84 1010.5
20260510022603 58 0 0.0 0.0 0.00 0.00 0.00 84 1010.5
20260510022503 58 0 0.0 0.0 0.00 0.00 0.00 84 1010.5
20260510022318 59 0 0.0 0.0 0.00 0.00 0.00 84 1010.4
20260510022306 59 0 0.0 0.0 0.00 0.00 0.00 84 1010.5
20260510022203 59 0 0.0 0.0 0.00 0.00 0.00 84 1010.5
20260510022004 59 0 0.0 0.0 0.00 0.00 0.00 84 1010.4
20260510021903 59 0 0.0 0.0 0.00 0.00 0.00 84 1010.4
20260510021804 59 0 0.0 0.0 0.00 0.00 0.00 84 1010.4
20260510021703 59 0 0.0 0.0 0.00 0.00 0.00 84 1010.4
20260510021603 59 0 0.0 0.0 0.00 0.00 0.00 84 1010.4
20260510021504 59 0 0.0 0.0 0.00 0.00 0.00 84 1010.4
20260510021403 59 0 0.0 0.0 0.00 0.00 0.00 84 1010.4
20260510021303 59 0 0.0 0.0 0.00 0.00 0.00 84 1010.4
20260510021204 59 0 0.0 0.0 0.00 0.00 0.00 84 1010.4
20260510021104 59 0 0.0 0.0 0.00 0.00 0.00 84 1010.4
20260510021003 60 0 0.0 0.0 0.00 0.00 0.00 83 1010.3
20260510020904 60 0 0.0 0.0 0.00 0.00 0.00 83 1010.3
20260510020804 60 0 0.0 0.0 0.00 0.00 0.00 83 1010.3
20260510020703 60 0 0.0 0.0 0.00 0.00 0.00 83 1010.3
20260510020603 60 0 0.0 0.0 0.00 0.00 0.00 84 1010.3
20260510020403 60 0 0.0 0.0 0.00 0.00 0.00 84 1010.3
20260510020304 60 0 0.0 0.0 0.00 0.00 0.00 83 1010.2
20260510020203 60 0 0.0 0.0 0.00 0.00 0.00 83 1010.2
20260510020104 60 0 0.0 0.0 0.00 0.00 0.00 83 1010.2
20260510015903 60 0 0.0 0.0 0.00 0.00 0.00 83 1010.3
20260510015803 60 0 0.0 0.0 0.00 0.00 0.00 83 1010.2
20260510015703 60 0 0.0 0.0 0.00 0.00 0.00 83 1010.2
20260510015403 60 0 0.0 0.0 0.00 0.00 0.00 82 1010.1
20260510015306 60 0 0.0 0.0 0.00 0.00 0.00 82 1010.1
20260510015203 60 0 0.0 0.0 0.00 0.00 0.00 83 1010.1
20260510015104 60 0 0.0 0.0 0.00 0.00 0.00 83 1010.1
20260510015003 60 0 0.0 0.0 0.00 0.00 0.00 83 1010.0
20260510014903 60 0 0.0 0.0 0.00 0.00 0.00 82 1010.0
20260510014804 60 0 0.0 0.0 0.00 0.00 0.00 82 1010.0
20260510014703 60 227 0.0 1.0 0.00 0.00 0.00 82 1010.0
20260510014604 60 227 0.0 1.0 0.00 0.00 0.00 82 1010.0
20260510014503 61 227 0.0 1.0 0.00 0.00 0.00 82 1010.0
20260510014404 61 227 0.0 1.0 0.00 0.00 0.00 81 1010.0
20260510014303 61 227 0.0 1.0 0.00 0.00 0.00 81 1010.0
20260510014203 61 227 0.0 1.0 0.00 0.00 0.00 82 1010.0
20260510014103 61 227 0.0 1.0 0.00 0.00 0.00 82 1010.0
20260510014003 61 227 0.0 1.0 0.00 0.00 0.00 82 1009.9
20260510013904 61 227 0.0 1.0 0.00 0.00 0.00 82 1009.9
20260510013803 61 227 0.0 1.0 0.00 0.00 0.00 82 1009.9
20260510013704 61 0 0.0 0.0 0.00 0.00 0.00 83 1009.9
20260510013603 61 0 0.0 0.0 0.00 0.00 0.00 83 1009.9
20260510013504 61 0 0.0 0.0 0.00 0.00 0.00 82 1009.8
20260510013419 61 0 0.0 0.0 0.00 0.00 0.00 82 1009.8
20260510013403 61 0 0.0 0.0 0.00 0.00 0.00 82 1009.9
20260510013303 61 0 0.0 0.0 0.00 0.00 0.00 82 1009.9
20260510013103 62 0 0.0 0.0 0.00 0.00 0.00 81 1009.8
20260510013003 62 0 0.0 0.0 0.00 0.00 0.00 81 1009.8
20260510012903 62 0 0.0 0.0 0.00 0.00 0.00 81 1009.8
20260510012819 62 0 0.0 0.0 0.00 0.00 0.00 80 1009.8
20260510012703 62 0 0.0 0.0 0.00 0.00 0.00 81 1009.8
20260510012503 62 0 0.0 0.0 0.00 0.00 0.00 80 1009.7
20260510012404 62 0 0.0 0.0 0.00 0.00 0.00 80 1009.7
20260510012306 62 0 0.0 0.0 0.00 0.00 0.00 80 1009.7
20260510012203 62 0 0.0 0.0 0.00 0.00 0.00 80 1009.7
20260510012103 62 0 0.0 0.0 0.00 0.00 0.00 79 1009.7
20260510011903 62 0 0.0 0.0 0.00 0.00 0.00 79 1009.7
20260510011804 62 0 0.0 0.0 0.00 0.00 0.00 79 1009.7
20260510011703 62 0 0.0 0.0 0.00 0.00 0.00 78 1009.6
20260510011604 62 0 0.0 0.0 0.00 0.00 0.00 78 1009.6
20260510011503 63 0 0.0 0.0 0.00 0.00 0.00 78 1009.6
20260510011403 63 0 0.0 0.0 0.00 0.00 0.00 78 1009.5
20260510011303 63 0 0.0 0.0 0.00 0.00 0.00 78 1009.5
20260510011203 63 0 0.0 0.0 0.00 0.00 0.00 78 1009.5
20260510011103 63 0 0.0 0.0 0.00 0.00 0.00 78 1009.5
20260510010904 63 0 0.0 0.0 0.00 0.00 0.00 77 1009.5
20260510010803 63 0 0.0 0.0 0.00 0.00 0.00 77 1009.5
20260510010703 63 0 0.0 0.0 0.00 0.00 0.00 77 1009.4
20260510010503 63 0 0.0 0.0 0.00 0.00 0.00 76 1009.4
20260510010403 64 0 0.0 0.0 0.00 0.00 0.00 76 1009.4
20260510010303 64 0 0.0 0.0 0.00 0.00 0.00 76 1009.4
20260510010203 64 0 0.0 0.0 0.00 0.00 0.00 76 1009.4
20260510010004 64 0 0.0 0.0 0.00 0.00 0.00 75 1009.3
20260510005903 64 0 0.0 0.0 0.00 0.00 0.00 75 1009.3
20260510005704 64 0 0.0 0.0 0.00 0.00 0.00 75 1009.3
20260510005604 64 0 0.0 0.0 0.00 0.00 0.00 74 1009.3
20260510005504 64 0 0.0 0.0 0.00 0.00 0.00 74 1009.3
20260510005403 64 0 0.0 0.0 0.00 0.00 0.00 74 1009.4
20260510005204 64 0 0.0 0.0 0.00 0.00 0.00 74 1009.4
20260510005104 65 0 0.0 0.0 0.00 0.00 0.00 73 1009.4
20260510005003 65 0 0.0 0.0 0.00 0.00 0.00 73 1009.4
20260510004904 65 0 0.0 0.0 0.00 0.00 0.00 73 1009.3
20260510004804 65 0 0.0 0.0 0.00 0.00 0.00 72 1009.4
20260510004704 65 0 0.0 0.0 0.00 0.00 0.00 72 1009.4
20260510004504 65 0 0.0 0.0 0.00 0.00 0.00 72 1009.3
20260510004403 65 0 0.0 0.0 0.00 0.00 0.00 72 1009.3
20260510004304 66 0 0.0 0.0 0.00 0.00 0.00 72 1009.3
20260510004204 66 0 0.0 0.0 0.00 0.00 0.00 73 1009.3
20260510004104 66 0 0.0 0.0 0.00 0.00 0.00 71 1009.3
20260510004003 66 227 0.0 1.0 0.00 0.00 0.00 70 1009.4
20260510003903 66 227 0.0 1.0 0.00 0.00 0.00 70 1009.4
20260510003804 66 227 0.0 1.0 0.00 0.00 0.00 70 1009.3
20260510003703 66 227 0.0 1.0 0.00 0.00 0.00 70 1009.3
20260510003603 66 227 0.0 1.0 0.00 0.00 0.00 70 1009.3
20260510003503 66 227 0.0 1.0 0.00 0.00 0.00 70 1009.3
20260510003404 66 227 0.0 1.0 0.00 0.00 0.00 70 1009.3
20260510003304 67 227 0.0 1.0 0.00 0.00 0.00 70 1009.3
20260510003204 67 227 0.0 1.0 0.00 0.00 0.00 70 1009.3
20260510003103 67 227 0.0 1.0 0.00 0.00 0.00 69 1009.4
20260510003004 67 227 0.0 1.0 0.00 0.00 0.00 69 1009.3
20260510002903 67 227 0.0 1.0 0.00 0.00 0.00 69 1009.3
20260510002803 67 0 0.0 0.0 0.00 0.00 0.00 69 1009.3
20260510002719 67 0 0.0 0.0 0.00 0.00 0.00 69 1009.3
20260510002703 67 0 0.0 0.0 0.00 0.00 0.00 68 1009.2
20260510002603 67 0 0.0 0.0 0.00 0.00 0.00 69 1009.2
20260510002306 68 0 0.0 0.0 0.00 0.00 0.00 68 1009.1
20260510002203 68 0 0.0 0.0 0.00 0.00 0.00 68 1009.1
20260510002103 68 0 0.0 0.0 0.00 0.00 0.00 68 1009.1
20260510001903 68 0 0.0 0.0 0.00 0.00 0.00 68 1009.1
20260510001804 68 0 0.0 0.0 0.00 0.00 0.00 68 1009.0
20260510001703 68 0 0.0 0.0 0.00 0.00 0.00 67 1009.0
20260510001604 68 0 0.0 0.0 0.00 0.00 0.00 66 1009.0
20260510001503 68 0 0.0 0.0 0.00 0.00 0.00 66 1009.0
20260510001404 68 0 0.0 0.0 0.00 0.00 0.00 67 1009.0
20260510001303 69 0 0.0 0.0 0.00 0.00 0.00 67 1009.0
20260510001203 69 0 0.0 0.0 0.00 0.00 0.00 66 1009.1
20260510001103 69 0 0.0 0.0 0.00 0.00 0.00 66 1009.1
20260510000804 69 0 0.0 0.0 0.00 0.00 0.00 64 1009.1
20260510000704 69 0 0.0 0.0 0.00 0.00 0.00 65 1009.1
20260510000604 69 0 0.0 0.0 0.00 0.00 0.00 65 1009.1
20260510000504 69 0 0.0 0.0 0.00 0.00 0.00 65 1009.1
20260510000404 69 0 0.0 0.0 0.00 0.00 0.00 65 1009.0
20260510000304 69 0 0.0 0.0 0.00 0.00 0.00 65 1009.0
20260510000204 69 0 0.0 0.0 0.00 0.00 0.00 65 1009.0
20260510000104 70 0 0.0 0.0 0.00 0.00 0.00 65 1009.0
20260510000003 70 0 0.0 0.0 0.00 0.00 0.00 65 1009.0
20260509235903 70 0 0.0 0.0 0.00 0.00 0.00 65 1008.9
20260509235804 70 0 0.0 0.0 0.00 0.00 0.00 66 1008.9
20260509235703 70 0 0.0 0.0 0.00 0.00 0.00 65 1009.0
20260509235603 70 0 0.0 0.0 0.00 0.00 0.00 65 1009.0
20260509235403 70 0 0.0 0.0 0.00 0.00 0.00 65 1009.0
20260509235307 70 0 0.0 0.0 0.00 0.00 0.00 64 1009.0
20260509235103 70 0 0.0 0.0 0.00 0.00 0.00 64 1009.0
20260509235004 70 0 0.0 0.0 0.00 0.00 0.00 64 1009.0
20260509234904 70 0 0.0 0.0 0.00 0.00 0.00 63 1008.9
20260509234804 70 0 0.0 0.0 0.00 0.00 0.00 63 1008.9
20260509234704 70 0 0.0 0.0 0.00 0.00 0.00 63 1008.9
20260509234503 70 0 0.0 0.0 0.00 0.00 0.00 63 1008.9
20260509234403 70 0 0.0 0.0 0.00 0.00 0.00 63 1008.8
20260509234319 70 0 0.0 0.0 0.00 0.00 0.00 63 1008.8
20260509234303 70 0 0.0 0.0 0.00 0.00 0.00 63 1008.9
20260509234204 71 0 0.0 0.0 0.00 0.00 0.00 62 1008.9
20260509234003 71 0 0.0 0.0 0.00 0.00 0.00 62 1008.9
20260509233903 71 0 0.0 0.0 0.00 0.00 0.00 62 1008.8
20260509233803 71 0 0.0 0.0 0.00 0.00 0.00 61 1008.9
20260509233703 71 0 0.0 0.0 0.00 0.00 0.00 62 1008.9
20260509233603 71 0 0.0 0.0 0.00 0.00 0.00 61 1008.8
20260509233503 71 0 0.0 0.0 0.00 0.00 0.00 61 1008.8
20260509233404 72 0 0.0 0.0 0.00 0.00 0.00 61 1008.8
20260509233303 72 0 0.0 0.0 0.00 0.00 0.00 60 1008.8
20260509233218 72 0 0.0 0.0 0.00 0.00 0.00 60 1008.8
20260509232903 72 227 0.0 1.0 0.00 0.00 0.00 60 1008.8
20260509232804 72 227 0.0 1.0 0.00 0.00 0.00 60 1008.8
20260509232703 72 227 0.0 1.0 0.00 0.00 0.00 60 1008.8
20260509232603 72 227 0.0 1.0 0.00 0.00 0.00 60 1008.8
20260509232504 72 227 0.0 1.0 0.00 0.00 0.00 60 1008.8
20260509232404 72 227 0.0 1.0 0.00 0.00 0.00 60 1008.8
20260509232306 72 227 0.0 1.0 0.00 0.00 0.00 60 1008.8
20260509232204 72 227 0.0 1.0 0.00 0.00 0.00 60 1008.8
20260509232103 72 227 0.0 1.0 0.00 0.00 0.00 60 1008.7
20260509232003 72 227 0.0 1.0 0.00 0.00 0.00 60 1008.7
20260509231904 72 0 0.0 0.0 0.00 0.00 0.00 60 1008.7
20260509231804 72 0 0.0 0.0 0.00 0.00 0.00 60 1008.7
20260509231703 72 0 0.0 0.0 0.00 0.00 0.00 59 1008.7
20260509231604 72 0 0.0 0.0 0.00 0.00 0.00 59 1008.7
20260509231503 72 0 0.0 0.0 0.00 0.00 0.00 59 1008.8
20260509231403 72 0 0.0 0.0 0.00 0.00 0.00 59 1008.8
20260509231303 72 0 0.0 0.0 0.00 0.00 0.00 59 1008.8
20260509231204 73 0 0.0 0.0 0.00 0.00 0.00 58 1008.8
20260509231103 73 0 0.0 0.0 0.00 0.00 0.00 58 1008.8
20260509231003 73 0 0.0 0.0 0.00 0.00 0.00 57 1008.8
20260509230904 73 0 0.0 0.0 0.00 0.00 0.00 57 1008.8
20260509230804 73 0 0.0 0.0 0.00 0.00 0.00 57 1008.8
20260509230704 73 0 0.0 0.0 0.00 0.00 0.00 57 1008.8
20260509230604 73 0 0.0 0.0 0.00 0.00 0.00 57 1008.8
20260509230503 73 0 0.0 0.0 0.00 0.00 0.00 57 1008.8
20260509230403 73 0 0.0 0.0 0.00 0.00 0.00 57 1008.8
20260509230304 73 0 0.0 0.0 0.00 0.00 0.00 57 1008.8
20260509230203 73 227 0.0 1.0 0.00 0.00 0.00 57 1008.8
20260509230103 73 227 0.0 1.0 0.00 0.00 0.00 57 1008.8
20260509225903 74 227 0.0 1.0 0.00 0.00 0.00 56 1008.8
20260509225803 74 227 0.0 1.0 0.00 0.00 0.00 56 1008.8
20260509225703 74 227 0.0 1.0 0.00 0.00 0.00 56 1008.8
20260509225604 74 227 0.0 1.0 0.00 0.00 0.00 56 1008.8
20260509225504 74 227 0.0 1.0 0.00 0.00 0.00 55 1008.7
20260509225403 74 227 0.0 1.0 0.00 0.00 0.00 54 1008.7
20260509225305 74 227 0.0 1.0 0.00 0.00 0.00 54 1008.7
20260509225204 74 227 0.0 1.0 0.00 0.00 0.00 52 1008.8
20260509225104 74 227 0.0 1.0 0.00 0.00 0.00 52 1008.8
20260509225003 74 266 0.0 2.0 0.00 0.00 0.00 52 1008.8
20260509224903 74 273 0.0 2.0 0.00 0.00 0.00 55 1008.7
20260509224804 75 277 0.0 2.0 0.00 0.00 0.00 53 1008.7
20260509224703 75 285 0.0 3.0 0.00 0.00 0.00 51 1008.7